Observation data for Weinert on 01/10/2018      Previous  Date  Next       Current Mesonet Observations  Soil Data  Daily Summary Page  Observations in Plain Language
KWE1 100600Z 18013KT 11/01 A2985 RMK A01 T01080014  RH  052%=      5-min Rain = 0
KWE1 100601Z 18014KT 11/01 A2985 RMK A01 T01080013  RH  052%=      5-min Rain = 0
KWE1 100602Z 18014KT 11/01 A2985 RMK A01 T01080014  RH  052%=      5-min Rain = 0
KWE1 100603Z 18013KT 11/01 A2985 RMK A01 T01080014  RH  052%=      5-min Rain = 0
KWE1 100604Z 18014KT 11/01 A2985 RMK A01 T01080014  RH  052%=      5-min Rain = 0
KWE1 100605Z 18014KT 11/01 A2985 RMK A01 T01080014  RH  052%=      5-min Rain = 0
KWE1 100606Z 18014KT 11/01 A2985 RMK A01 T01080014  RH  052%=      5-min Rain = 0
KWE1 100607Z 18014KT 11/01 A2984 RMK A01 T01080014  RH  052%=      5-min Rain = 0
KWE1 100608Z 18014KT 11/01 A2984 RMK A01 T01070013  RH  052%=      5-min Rain = 0
KWE1 100609Z 18014KT 11/01 A2984 RMK A01 T01070013  RH  052%=      5-min Rain = 0
KWE1 100610Z 18014KT 11/01 A2984 RMK A01 T01070013  RH  052%=      5-min Rain = 0
KWE1 100611Z 18014KT 11/01 A2984 RMK A01 T01080013  RH  052%=      5-min Rain = 0
KWE1 100612Z 18014KT 11/01 A2984 RMK A01 T01070013  RH  052%=      5-min Rain = 0
KWE1 100613Z 18014KT 11/01 A2984 RMK A01 T01070013  RH  052%=      5-min Rain = 0
KWE1 100614Z 18013KT 11/01 A2984 RMK A01 T01070013  RH  052%=      5-min Rain = 0
KWE1 100615Z 18014KT 11/01 A2984 RMK A01 T01070013  RH  052%=      5-min Rain = 0
KWE1 100616Z 18014KT 11/01 A2984 RMK A01 T01070013  RH  052%=      5-min Rain = 0
KWE1 100617Z 18015KT 11/01 A2984 RMK A01 T01070014  RH  052%=      5-min Rain = 0
KWE1 100618Z 18015KT 11/01 A2983 RMK A01 T01080014  RH  052%=      5-min Rain = 0
KWE1 100619Z 18014KT 11/01 A2983 RMK A01 T01080014  RH  052%=      5-min Rain = 0
KWE1 100620Z 18014KT 11/01 A2983 RMK A01 T01080014  RH  052%=      5-min Rain = 0
KWE1 100621Z 18014KT 11/01 A2983 RMK A01 T01080014  RH  052%=      5-min Rain = 0
KWE1 100622Z 18014KT 11/01 A2983 RMK A01 T01080013  RH  052%=      5-min Rain = 0
KWE1 100623Z 18014KT 11/01 A2983 RMK A01 T01090014  RH  052%=      5-min Rain = 0
KWE1 100624Z 18015KT 11/01 A2983 RMK A01 T01090014  RH  052%=      5-min Rain = 0
KWE1 100625Z 18015KT 11/01 A2983 RMK A01 T01080014  RH  052%=      5-min Rain = 0
KWE1 100626Z 18014KT 11/01 A2983 RMK A01 T01080014  RH  052%=      5-min Rain = 0
KWE1 100627Z 18014KT 11/01 A2983 RMK A01 T01080014  RH  052%=      5-min Rain = 0
KWE1 100628Z 19013KT 11/01 A2983 RMK A01 T01080014  RH  052%=      5-min Rain = 0
KWE1 100629Z 19013KT 11/01 A2983 RMK A01 T01070014  RH  052%=      5-min Rain = 0
KWE1 100630Z 19013KT 11/01 A2983 RMK A01 T01070014  RH  052%=      5-min Rain = 0
KWE1 100631Z 19013KT 11/01 A2983 RMK A01 T01060013  RH  053%=      5-min Rain = 0
KWE1 100632Z 19013KT 11/01 A2983 RMK A01 T01050013  RH  053%=      5-min Rain = 0
KWE1 100633Z 19013KT 11/01 A2983 RMK A01 T01050013  RH  053%=      5-min Rain = 0
KWE1 100634Z 19013KT 11/01 A2983 RMK A01 T01050013  RH  053%=      5-min Rain = 0
KWE1 100635Z 19013KT 10/01 A2983 RMK A01 T01040013  RH  053%=      5-min Rain = 0
KWE1 100636Z 19013KT 11/01 A2983 RMK A01 T01050014  RH  053%=      5-min Rain = 0
KWE1 100637Z 19013KT 11/01 A2983 RMK A01 T01060014  RH  053%=      5-min Rain = 0
KWE1 100638Z 19013KT 11/01 A2983 RMK A01 T01060014  RH  053%=      5-min Rain = 0
KWE1 100639Z 19012KT 11/01 A2983 RMK A01 T01070014  RH  053%=      5-min Rain = 0
KWE1 100640Z 19012KT 11/01 A2983 RMK A01 T01060014  RH  053%=      5-min Rain = 0
KWE1 100641Z 19011KT 11/01 A2983 RMK A01 T01050013  RH  053%=      5-min Rain = 0
KWE1 100642Z 19011KT 11/01 A2983 RMK A01 T01050013  RH  053%=      5-min Rain = 0
KWE1 100643Z 19012KT 11/01 A2983 RMK A01 T01050013  RH  053%=      5-min Rain = 0
KWE1 100644Z 19012KT 11/01 A2983 RMK A01 T01050013  RH  053%=      5-min Rain = 0
KWE1 100645Z 19011KT 11/01 A2983 RMK A01 T01050013  RH  053%=      5-min Rain = 0
KWE1 100646Z 19011KT 11/01 A2983 RMK A01 T01050013  RH  053%=      5-min Rain = 0
KWE1 100647Z 19011KT 11/01 A2983 RMK A01 T01050013  RH  053%=      5-min Rain = 0
KWE1 100648Z 19012KT 11/01 A2983 RMK A01 T01050013  RH  053%=      5-min Rain = 0
KWE1 100649Z 19011KT 10/01 A2983 RMK A01 T01040013  RH  053%=      5-min Rain = 0
KWE1 100650Z 19011KT 10/01 A2983 RMK A01 T01040013  RH  053%=      5-min Rain = 0
KWE1 100651Z 19012KT 10/01 A2983 RMK A01 T01040013  RH  053%=      5-min Rain = 0
KWE1 100652Z 19012KT 10/01 A2983 RMK A01 T01040014  RH  053%=      5-min Rain = 0
KWE1 100653Z 19012KT 10/01 A2983 RMK A01 T01040013  RH  053%=      5-min Rain = 0
KWE1 100654Z 19012KT 11/01 A2983 RMK A01 T01050014  RH  053%=      5-min Rain = 0
KWE1 100655Z 19011KT 11/01 A2983 RMK A01 T01050014  RH  053%=      5-min Rain = 0
KWE1 100656Z 19011KT 11/01 A2983 RMK A01 T01050013  RH  053%=      5-min Rain = 0
KWE1 100657Z 19011KT 11/01 A2983 RMK A01 T01050014  RH  053%=      5-min Rain = 0
KWE1 100658Z 19010KT 11/01 A2983 RMK A01 T01060014  RH  053%=      5-min Rain = 0
KWE1 100659Z 19010KT 11/01 A2983 RMK A01 T01060014  RH  053%=      5-min Rain = 0
KWE1 100700Z 19010KT 11/01 A2983 RMK A01 T01060014  RH  053%=      5-min Rain = 0
KWE1 100701Z 19011KT 11/01 A2983 RMK A01 T01060014  RH  053%=      5-min Rain = 0
KWE1 100702Z 19011KT 11/01 A2983 RMK A01 T01060014  RH  053%=      5-min Rain = 0
KWE1 100703Z 19011KT 11/01 A2983 RMK A01 T01060014  RH  053%=      5-min Rain = 0
KWE1 100704Z 19012KT 11/01 A2983 RMK A01 T01060014  RH  053%=      5-min Rain = 0
KWE1 100705Z 19011KT 11/01 A2983 RMK A01 T01050014  RH  053%=      5-min Rain = 0
KWE1 100706Z 19011KT 11/01 A2983 RMK A01 T01050014  RH  053%=      5-min Rain = 0
KWE1 100707Z 19011KT 11/01 A2983 RMK A01 T01050014  RH  053%=      5-min Rain = 0
KWE1 100708Z 19011KT 10/01 A2983 RMK A01 T01040014  RH  053%=      5-min Rain = 0
KWE1 100709Z 19011KT 10/01 A2983 RMK A01 T01040014  RH  053%=      5-min Rain = 0
KWE1 100710Z 19011KT 10/01 A2983 RMK A01 T01040013  RH  053%=      5-min Rain = 0
KWE1 100711Z 19010KT 10/01 A2983 RMK A01 T01040014  RH  054%=      5-min Rain = 0
KWE1 100712Z 19009KT 11/01 A2983 RMK A01 T01050014  RH  053%=      5-min Rain = 0
KWE1 100713Z 19010KT 10/01 A2983 RMK A01 T01040013  RH  053%=      5-min Rain = 0
KWE1 100714Z 19009KT 10/01 A2983 RMK A01 T01030013  RH  053%=      5-min Rain = 0
KWE1 100715Z 19010KT 10/01 A2983 RMK A01 T01030013  RH  054%=      5-min Rain = 0
KWE1 100716Z 19009KT 10/01 A2983 RMK A01 T01010012  RH  054%=      5-min Rain = 0
KWE1 100717Z 19010KT 10/01 A2983 RMK A01 T01000012  RH  054%=      5-min Rain = 0
KWE1 100718Z 19010KT 10/01 A2983 RMK A01 T01000012  RH  054%=      5-min Rain = 0
KWE1 100719Z 19010KT 10/01 A2983 RMK A01 T00990012  RH  055%=      5-min Rain = 0
KWE1 100720Z 19010KT 10/01 A2983 RMK A01 T00990012  RH  055%=      5-min Rain = 0
KWE1 100721Z 19009KT 10/01 A2983 RMK A01 T00990012  RH  055%=      5-min Rain = 0
KWE1 100722Z 19009KT 10/01 A2983 RMK A01 T00990012  RH  055%=      5-min Rain = 0
KWE1 100723Z 19010KT 10/01 A2983 RMK A01 T00980012  RH  055%=      5-min Rain = 0
KWE1 100724Z 19010KT 10/01 A2983 RMK A01 T00980012  RH  055%=      5-min Rain = 0
KWE1 100725Z 19009KT 10/01 A2983 RMK A01 T00970012  RH  055%=      5-min Rain = 0
KWE1 100726Z 19010KT 10/01 A2983 RMK A01 T00970011  RH  055%=      5-min Rain = 0
KWE1 100727Z 19010KT 10/01 A2983 RMK A01 T00970012  RH  055%=      5-min Rain = 0
KWE1 100728Z 19011KT 10/01 A2983 RMK A01 T00970012  RH  056%=      5-min Rain = 0
KWE1 100729Z 19011KT 10/01 A2983 RMK A01 T00970012  RH  056%=      5-min Rain = 0
KWE1 100730Z 19011KT 10/01 A2983 RMK A01 T00960012  RH  056%=      5-min Rain = 0
KWE1 100731Z 19010KT 10/01 A2983 RMK A01 T00970012  RH  056%=      5-min Rain = 0
KWE1 100732Z 19010KT 10/01 A2983 RMK A01 T00970012  RH  055%=      5-min Rain = 0
KWE1 100733Z 19010KT 10/01 A2983 RMK A01 T00960011  RH  055%=      5-min Rain = 0
KWE1 100734Z 19010KT 10/01 A2983 RMK A01 T00960012  RH  055%=      5-min Rain = 0
KWE1 100735Z 19010KT 10/01 A2983 RMK A01 T00960012  RH  056%=      5-min Rain = 0
KWE1 100736Z 19011KT 10/01 A2983 RMK A01 T00960011  RH  055%=      5-min Rain = 0
KWE1 100737Z 19011KT 10/01 A2983 RMK A01 T00960012  RH  056%=      5-min Rain = 0
KWE1 100738Z 19011KT 10/01 A2983 RMK A01 T00960012  RH  056%=      5-min Rain = 0
KWE1 100739Z 19011KT 10/01 A2983 RMK A01 T00970012  RH  056%=      5-min Rain = 0
KWE1 100740Z 19012KT 10/01 A2983 RMK A01 T00970012  RH  055%=      5-min Rain = 0
KWE1 100741Z 19011KT 10/01 A2983 RMK A01 T00970012  RH  055%=      5-min Rain = 0
KWE1 100742Z 19012KT 10/01 A2983 RMK A01 T00970012  RH  055%=      5-min Rain = 0
KWE1 100743Z 19012KT 10/01 A2983 RMK A01 T00970012  RH  055%=      5-min Rain = 0
KWE1 100744Z 18011KT 10/01 A2983 RMK A01 T00970012  RH  055%=      5-min Rain = 0
KWE1 100745Z 18010KT 10/01 A2983 RMK A01 T00960011  RH  056%=      5-min Rain = 0
KWE1 100746Z 18011KT 10/01 A2983 RMK A01 T00960012  RH  056%=      5-min Rain = 0
KWE1 100747Z 18010KT 10/01 A2983 RMK A01 T00960012  RH  056%=      5-min Rain = 0
KWE1 100748Z 18010KT 10/01 A2983 RMK A01 T00960012  RH  056%=      5-min Rain = 0
KWE1 100749Z 18010KT 10/01 A2983 RMK A01 T00960012  RH  056%=      5-min Rain = 0
KWE1 100750Z 18010KT 10/01 A2983 RMK A01 T00950011  RH  056%=      5-min Rain = 0
KWE1 100751Z 18010KT 10/01 A2983 RMK A01 T00950011  RH  056%=      5-min Rain = 0
KWE1 100752Z 18010KT 09/01 A2983 RMK A01 T00940011  RH  056%=      5-min Rain = 0
KWE1 100753Z 18010KT 09/01 A2983 RMK A01 T00940011  RH  056%=      5-min Rain = 0
KWE1 100754Z 18010KT 09/01 A2983 RMK A01 T00930011  RH  056%=      5-min Rain = 0
KWE1 100755Z 18010KT 09/01 A2983 RMK A01 T00930011  RH  056%=      5-min Rain = 0
KWE1 100756Z 18009KT 09/01 A2983 RMK A01 T00930011  RH  056%=      5-min Rain = 0
KWE1 100757Z 18010KT 09/01 A2983 RMK A01 T00930011  RH  056%=      5-min Rain = 0
KWE1 100758Z 18009KT 09/01 A2983 RMK A01 T00920011  RH  057%=      5-min Rain = 0
KWE1 100759Z 18010KT 09/01 A2983 RMK A01 T00920011  RH  057%=      5-min Rain = 0
KWE1 100800Z 18010KT 09/01 A2983 RMK A01 T00920011  RH  057%=      5-min Rain = 0
KWE1 100801Z 18011KT 09/01 A2983 RMK A01 T00920011  RH  057%=      5-min Rain = 0
KWE1 100802Z 18011KT 09/01 A2983 RMK A01 T00920011  RH  057%=      5-min Rain = 0
KWE1 100803Z 18010KT 09/01 A2983 RMK A01 T00930012  RH  057%=      5-min Rain = 0
KWE1 100804Z 18010KT 09/01 A2983 RMK A01 T00940012  RH  057%=      5-min Rain = 0
KWE1 100805Z 17011KT 09/01 A2983 RMK A01 T00940011  RH  056%=      5-min Rain = 0
KWE1 100806Z 17010KT 09/01 A2983 RMK A01 T00940011  RH  056%=      5-min Rain = 0
KWE1 100807Z 17011KT 09/01 A2983 RMK A01 T00940011  RH  056%=      5-min Rain = 0
KWE1 100808Z 17011KT 09/01 A2983 RMK A01 T00940012  RH  056%=      5-min Rain = 0
KWE1 100809Z 17010KT 09/01 A2983 RMK A01 T00940012  RH  056%=      5-min Rain = 0
KWE1 100810Z 18011KT 09/01 A2983 RMK A01 T00940011  RH  056%=      5-min Rain = 0
KWE1 100811Z 18010KT 09/01 A2983 RMK A01 T00930011  RH  056%=      5-min Rain = 0
KWE1 100812Z 18010KT 09/01 A2983 RMK A01 T00940012  RH  057%=      5-min Rain = 0
KWE1 100813Z 18010KT 09/01 A2983 RMK A01 T00930012  RH  057%=      5-min Rain = 0
KWE1 100814Z 18010KT 09/01 A2983 RMK A01 T00930012  RH  057%=      5-min Rain = 0
KWE1 100815Z 18010KT 09/01 A2983 RMK A01 T00930011  RH  057%=      5-min Rain = 0
KWE1 100816Z 18010KT 09/01 A2983 RMK A01 T00930012  RH  057%=      5-min Rain = 0
KWE1 100817Z 18010KT 09/01 A2983 RMK A01 T00930012  RH  057%=      5-min Rain = 0
KWE1 100818Z 18011KT 09/01 A2983 RMK A01 T00930012  RH  057%=      5-min Rain = 0
KWE1 100819Z 18010KT 09/01 A2983 RMK A01 T00930012  RH  057%=      5-min Rain = 0
KWE1 100820Z 18010KT 09/01 A2983 RMK A01 T00930012  RH  057%=      5-min Rain = 0
KWE1 100821Z 17009KT 09/01 A2983 RMK A01 T00930012  RH  057%=      5-min Rain = 0
KWE1 100822Z 17010KT 09/01 A2983 RMK A01 T00930012  RH  057%=      5-min Rain = 0
KWE1 100823Z 18010KT 09/01 A2983 RMK A01 T00930012  RH  057%=      5-min Rain = 0
KWE1 100824Z 18010KT 09/01 A2983 RMK A01 T00940013  RH  057%=      5-min Rain = 0
KWE1 100825Z 18010KT 10/01 A2983 RMK A01 T00950013  RH  057%=      5-min Rain = 0
KWE1 100826Z 17010KT 10/01 A2983 RMK A01 T00950013  RH  056%=      5-min Rain = 0
KWE1 100827Z 18010KT 10/01 A2983 RMK A01 T00960013  RH  056%=      5-min Rain = 0
KWE1 100828Z 18010KT 10/01 A2983 RMK A01 T00960013  RH  056%=      5-min Rain = 0
KWE1 100829Z 18011KT 10/01 A2983 RMK A01 T00960013  RH  056%=      5-min Rain = 0
KWE1 100830Z 18011KT 10/01 A2983 RMK A01 T00960013  RH  056%=      5-min Rain = 0
KWE1 100831Z 17010KT 10/01 A2983 RMK A01 T00960013  RH  056%=      5-min Rain = 0
KWE1 100832Z 17011KT 10/01 A2983 RMK A01 T00970013  RH  056%=      5-min Rain = 0
KWE1 100833Z 18010KT 10/01 A2983 RMK A01 T00960013  RH  056%=      5-min Rain = 0
KWE1 100834Z 18010KT 10/01 A2983 RMK A01 T00970013  RH  056%=      5-min Rain = 0
KWE1 100835Z 18011KT 10/01 A2983 RMK A01 T00970013  RH  056%=      5-min Rain = 0
KWE1 100836Z 18011KT 10/01 A2983 RMK A01 T00980014  RH  056%=      5-min Rain = 0
KWE1 100837Z 18010KT 10/01 A2983 RMK A01 T00990013  RH  055%=      5-min Rain = 0
KWE1 100838Z 17009KT 10/01 A2983 RMK A01 T00990013  RH  055%=      5-min Rain = 0
KWE1 100839Z 17010KT 10/01 A2983 RMK A01 T00980013  RH  055%=      5-min Rain = 0
KWE1 100840Z 18009KT 10/01 A2983 RMK A01 T00980013  RH  055%=      5-min Rain = 0
KWE1 100841Z 18009KT 10/01 A2983 RMK A01 T00980013  RH  055%=      5-min Rain = 0
KWE1 100842Z 18009KT 10/01 A2983 RMK A01 T00980013  RH  055%=      5-min Rain = 0
KWE1 100843Z 18010KT 10/01 A2983 RMK A01 T00980013  RH  055%=      5-min Rain = 0
KWE1 100844Z 18008KT 10/01 A2983 RMK A01 T00980013  RH  055%=      5-min Rain = 0
KWE1 100845Z 18008KT 10/01 A2983 RMK A01 T00970012  RH  055%=      5-min Rain = 0
KWE1 100846Z 18008KT 10/01 A2983 RMK A01 T00970012  RH  056%=      5-min Rain = 0
KWE1 100847Z 18008KT 10/01 A2983 RMK A01 T00960012  RH  056%=      5-min Rain = 0
KWE1 100848Z 18008KT 10/01 A2983 RMK A01 T00950011  RH  056%=      5-min Rain = 0
KWE1 100849Z 18007KT 10/01 A2983 RMK A01 T00950012  RH  056%=      5-min Rain = 0
KWE1 100850Z 18007KT 10/01 A2983 RMK A01 T00950011  RH  056%=      5-min Rain = 0
KWE1 100851Z 18006KT 09/01 A2983 RMK A01 T00940011  RH  056%=      5-min Rain = 0
KWE1 100852Z 19006KT 09/01 A2983 RMK A01 T00920009  RH  056%=      5-min Rain = 0
KWE1 100853Z 18007KT 09/01 A2983 RMK A01 T00900009  RH  057%=      5-min Rain = 0
KWE1 100854Z 18007KT 09/01 A2983 RMK A01 T00900009  RH  057%=      5-min Rain = 0
KWE1 100855Z 18006KT 09/01 A2983 RMK A01 T00890009  RH  057%=      5-min Rain = 0
KWE1 100856Z 18007KT 09/01 A2983 RMK A01 T00870008  RH  058%=      5-min Rain = 0
KWE1 100857Z 18007KT 09/01 A2983 RMK A01 T00860008  RH  058%=      5-min Rain = 0
KWE1 100858Z 18006KT 09/01 A2983 RMK A01 T00860008  RH  058%=      5-min Rain = 0
KWE1 100859Z 18007KT 09/01 A2983 RMK A01 T00850008  RH  058%=      5-min Rain = 0
KWE1 100900Z 18009KT 08/01 A2983 RMK A01 T00840008  RH  058%=      5-min Rain = 0
KWE1 100901Z 18010KT 09/01 A2983 RMK A01 T00850009  RH  059%=      5-min Rain = 0
KWE1 100902Z 18010KT 09/01 A2983 RMK A01 T00860009  RH  059%=      5-min Rain = 0
KWE1 100903Z 18009KT 09/01 A2983 RMK A01 T00860009  RH  058%=      5-min Rain = 0
KWE1 100904Z 18008KT 09/01 A2983 RMK A01 T00860009  RH  058%=      5-min Rain = 0
KWE1 100905Z 18008KT 09/01 A2983 RMK A01 T00860009  RH  058%=      5-min Rain = 0
KWE1 100906Z 18010KT 09/01 A2983 RMK A01 T00860010  RH  059%=      5-min Rain = 0
KWE1 100907Z 17009KT 09/01 A2983 RMK A01 T00880012  RH  059%=      5-min Rain = 0
KWE1 100908Z 17010KT 09/01 A2983 RMK A01 T00900012  RH  058%=      5-min Rain = 0
KWE1 100909Z 17010KT 09/01 A2983 RMK A01 T00910012  RH  058%=      5-min Rain = 0
KWE1 100910Z 18010KT 09/01 A2983 RMK A01 T00910012  RH  057%=      5-min Rain = 0
KWE1 100911Z 18010KT 09/01 A2983 RMK A01 T00920012  RH  057%=      5-min Rain = 0
KWE1 100912Z 17010KT 09/01 A2983 RMK A01 T00910012  RH  058%=      5-min Rain = 0
KWE1 100913Z 17012KT 09/01 A2983 RMK A01 T00920012  RH  058%=      5-min Rain = 0
KWE1 100914Z 17011KT 09/01 A2983 RMK A01 T00940014  RH  057%=      5-min Rain = 0
KWE1 100915Z 17011KT 09/01 A2983 RMK A01 T00940013  RH  057%=      5-min Rain = 0
KWE1 100916Z 18010KT 10/01 A2983 RMK A01 T00950013  RH  057%=      5-min Rain = 0
KWE1 100917Z 17010KT 09/01 A2983 RMK A01 T00940012  RH  057%=      5-min Rain = 0
KWE1 100918Z 18010KT 09/01 A2983 RMK A01 T00930012  RH  057%=      5-min Rain = 0
KWE1 100919Z 18009KT 09/01 A2983 RMK A01 T00920012  RH  057%=      5-min Rain = 0
KWE1 100920Z 17010KT 09/01 A2983 RMK A01 T00910011  RH  057%=      5-min Rain = 0
KWE1 100921Z 18010KT 09/01 A2983 RMK A01 T00910011  RH  058%=      5-min Rain = 0
KWE1 100922Z 18009KT 09/01 A2982 RMK A01 T00910012  RH  058%=      5-min Rain = 0
KWE1 100923Z 17010KT 09/01 A2982 RMK A01 T00910012  RH  058%=      5-min Rain = 0
KWE1 100924Z 17010KT 09/01 A2982 RMK A01 T00900012  RH  058%=      5-min Rain = 0
KWE1 100925Z 17010KT 09/01 A2982 RMK A01 T00900012  RH  058%=      5-min Rain = 0
KWE1 100926Z 17010KT 09/01 A2982 RMK A01 T00910013  RH  058%=      5-min Rain = 0
KWE1 100927Z 17009KT 09/01 A2982 RMK A01 T00910012  RH  058%=      5-min Rain = 0
KWE1 100928Z 18009KT 09/01 A2982 RMK A01 T00910012  RH  058%=      5-min Rain = 0
KWE1 100929Z 18009KT 09/01 A2982 RMK A01 T00900011  RH  058%=      5-min Rain = 0
KWE1 100930Z 18009KT 09/01 A2982 RMK A01 T00900012  RH  058%=      5-min Rain = 0
KWE1 100931Z 18009KT 09/01 A2982 RMK A01 T00900012  RH  058%=      5-min Rain = 0
KWE1 100932Z 18009KT 09/01 A2982 RMK A01 T00900012  RH  058%=      5-min Rain = 0
KWE1 100933Z 17010KT 09/01 A2982 RMK A01 T00890011  RH  058%=      5-min Rain = 0
KWE1 100934Z 18010KT 09/01 A2982 RMK A01 T00890012  RH  058%=      5-min Rain = 0
KWE1 100935Z 18010KT 09/01 A2982 RMK A01 T00900012  RH  058%=      5-min Rain = 0
KWE1 100936Z 18009KT 09/01 A2982 RMK A01 T00900012  RH  058%=      5-min Rain = 0
KWE1 100937Z 18009KT 09/01 A2982 RMK A01 T00900011  RH  058%=      5-min Rain = 0
KWE1 100938Z 18009KT 09/01 A2982 RMK A01 T00890011  RH  058%=      5-min Rain = 0
KWE1 100939Z 18009KT 09/01 A2982 RMK A01 T00880011  RH  058%=      5-min Rain = 0
KWE1 100940Z 18009KT 09/01 A2982 RMK A01 T00880011  RH  058%=      5-min Rain = 0
KWE1 100941Z 18009KT 09/01 A2982 RMK A01 T00880011  RH  058%=      5-min Rain = 0
KWE1 100942Z 17009KT 09/01 A2982 RMK A01 T00870011  RH  059%=      5-min Rain = 0
KWE1 100943Z 18009KT 09/01 A2982 RMK A01 T00870011  RH  059%=      5-min Rain = 0
KWE1 100944Z 18009KT 09/01 A2981 RMK A01 T00870011  RH  059%=      5-min Rain = 0
KWE1 100945Z 18010KT 09/01 A2981 RMK A01 T00870011  RH  059%=      5-min Rain = 0
KWE1 100946Z 18009KT 09/01 A2981 RMK A01 T00870011  RH  059%=      5-min Rain = 0
KWE1 100947Z 18010KT 09/01 A2981 RMK A01 T00880011  RH  059%=      5-min Rain = 0
KWE1 100948Z 18010KT 09/01 A2981 RMK A01 T00880011  RH  059%=      5-min Rain = 0
KWE1 100949Z 18009KT 09/01 A2981 RMK A01 T00890012  RH  058%=      5-min Rain = 0
KWE1 100950Z 18010KT 09/01 A2981 RMK A01 T00890012  RH  058%=      5-min Rain = 0
KWE1 100951Z 18009KT 09/01 A2981 RMK A01 T00890011  RH  058%=      5-min Rain = 0
KWE1 100952Z 18009KT 09/01 A2981 RMK A01 T00890011  RH  058%=      5-min Rain = 0
KWE1 100953Z 18009KT 09/01 A2981 RMK A01 T00890011  RH  058%=      5-min Rain = 0
KWE1 100954Z 18009KT 09/01 A2981 RMK A01 T00890012  RH  058%=      5-min Rain = 0
KWE1 100955Z 18009KT 09/01 A2981 RMK A01 T00890011  RH  058%=      5-min Rain = 0
KWE1 100956Z 18008KT 09/01 A2981 RMK A01 T00890011  RH  058%=      5-min Rain = 0
KWE1 100957Z 18008KT 09/01 A2981 RMK A01 T00890011  RH  058%=      5-min Rain = 0
KWE1 100958Z 18008KT 09/01 A2981 RMK A01 T00880011  RH  058%=      5-min Rain = 0
KWE1 100959Z 18009KT 09/01 A2981 RMK A01 T00870010  RH  059%=      5-min Rain = 0
KWE1 101000Z 18008KT 09/01 A2981 RMK A01 T00870011  RH  059%=      5-min Rain = 0
KWE1 101001Z 18008KT 09/01 A2981 RMK A01 T00870011  RH  059%=      5-min Rain = 0
KWE1 101002Z 18008KT 09/01 A2981 RMK A01 T00870010  RH  059%=      5-min Rain = 0
KWE1 101003Z 18008KT 09/01 A2981 RMK A01 T00860010  RH  059%=      5-min Rain = 0
KWE1 101004Z 18008KT 09/01 A2981 RMK A01 T00850009  RH  059%=      5-min Rain = 0
KWE1 101005Z 18008KT 08/01 A2981 RMK A01 T00840009  RH  059%=      5-min Rain = 0
KWE1 101006Z 18008KT 08/01 A2981 RMK A01 T00840009  RH  059%=      5-min Rain = 0
KWE1 101007Z 18008KT 08/01 A2981 RMK A01 T00830009  RH  060%=      5-min Rain = 0
KWE1 101008Z 18008KT 08/01 A2981 RMK A01 T00820009  RH  060%=      5-min Rain = 0
KWE1 101009Z 18008KT 08/01 A2981 RMK A01 T00810008  RH  060%=      5-min Rain = 0
KWE1 101010Z 18009KT 08/01 A2981 RMK A01 T00810009  RH  060%=      5-min Rain = 0
KWE1 101011Z 18009KT 08/01 A2981 RMK A01 T00800009  RH  061%=      5-min Rain = 0
KWE1 101012Z 18009KT 08/01 A2981 RMK A01 T00800009  RH  061%=      5-min Rain = 0
KWE1 101013Z 18009KT 08/01 A2981 RMK A01 T00800009  RH  061%=      5-min Rain = 0
KWE1 101014Z 18008KT 08/01 A2981 RMK A01 T00800009  RH  061%=      5-min Rain = 0
KWE1 101015Z 18009KT 08/01 A2981 RMK A01 T00790009  RH  061%=      5-min Rain = 0
KWE1 101016Z 18008KT 08/01 A2981 RMK A01 T00790009  RH  061%=      5-min Rain = 0
KWE1 101017Z 17009KT 08/01 A2981 RMK A01 T00790009  RH  061%=      5-min Rain = 0
KWE1 101018Z 18010KT 08/01 A2981 RMK A01 T00790009  RH  061%=      5-min Rain = 0
KWE1 101019Z 18009KT 08/01 A2981 RMK A01 T00790010  RH  061%=      5-min Rain = 0
KWE1 101020Z 17009KT 08/01 A2981 RMK A01 T00800010  RH  061%=      5-min Rain = 0
KWE1 101021Z 18009KT 08/01 A2981 RMK A01 T00810010  RH  061%=      5-min Rain = 0
KWE1 101022Z 17009KT 08/01 A2981 RMK A01 T00810010  RH  061%=      5-min Rain = 0
KWE1 101023Z 18008KT 08/01 A2981 RMK A01 T00810010  RH  061%=      5-min Rain = 0
KWE1 101024Z 18008KT 08/01 A2981 RMK A01 T00800010  RH  061%=      5-min Rain = 0
KWE1 101025Z 18007KT 08/01 A2981 RMK A01 T00800010  RH  061%=      5-min Rain = 0
KWE1 101026Z 18007KT 08/01 A2981 RMK A01 T00790009  RH  061%=      5-min Rain = 0
KWE1 101027Z 18007KT 08/01 A2981 RMK A01 T00790009  RH  061%=      5-min Rain = 0
KWE1 101028Z 18008KT 08/01 A2981 RMK A01 T00790009  RH  061%=      5-min Rain = 0
KWE1 101029Z 18008KT 08/01 A2981 RMK A01 T00790009  RH  061%=      5-min Rain = 0
KWE1 101030Z 18007KT 08/01 A2981 RMK A01 T00790009  RH  061%=      5-min Rain = 0
KWE1 101031Z 18007KT 08/01 A2981 RMK A01 T00790008  RH  061%=      5-min Rain = 0
KWE1 101032Z 18007KT 08/01 A2981 RMK A01 T00780008  RH  061%=      5-min Rain = 0
KWE1 101033Z 18007KT 08/01 A2981 RMK A01 T00770007  RH  061%=      5-min Rain = 0
KWE1 101034Z 18007KT 08/01 A2981 RMK A01 T00760007  RH  062%=      5-min Rain = 0
KWE1 101035Z 18008KT 08/01 A2981 RMK A01 T00750007  RH  062%=      5-min Rain = 0
KWE1 101036Z 18008KT 08/01 A2981 RMK A01 T00750007  RH  062%=      5-min Rain = 0
KWE1 101037Z 18009KT 08/01 A298 RMK A01 T00750008  RH  062%=      5-min Rain = 0
KWE1 101038Z 18008KT 08/01 A2981 RMK A01 T00760009  RH  062%=      5-min Rain = 0
KWE1 101039Z 18008KT 08/01 A2981 RMK A01 T00760008  RH  062%=      5-min Rain = 0
KWE1 101040Z 18008KT 08/01 A2981 RMK A01 T00760008  RH  062%=      5-min Rain = 0
KWE1 101041Z 18007KT 08/01 A2981 RMK A01 T00760008  RH  062%=      5-min Rain = 0
KWE1 101042Z 19007KT 08/01 A2981 RMK A01 T00760008  RH  062%=      5-min Rain = 0
KWE1 101043Z 19008KT 08/01 A2981 RMK A01 T00760008  RH  062%=      5-min Rain = 0
KWE1 101044Z 19008KT 08/01 A2981 RMK A01 T00750007  RH  062%=      5-min Rain = 0
KWE1 101045Z 19008KT 08/01 A2981 RMK A01 T00750008  RH  062%=      5-min Rain = 0
KWE1 101046Z 19007KT 08/01 A2981 RMK A01 T00750008  RH  063%=      5-min Rain = 0
KWE1 101047Z 19007KT 08/01 A2981 RMK A01 T00750008  RH  063%=      5-min Rain = 0
KWE1 101048Z 19007KT 07/01 A2981 RMK A01 T00730007  RH  063%=      5-min Rain = 0
KWE1 101049Z 19007KT 07/01 A2981 RMK A01 T00730006  RH  063%=      5-min Rain = 0
KWE1 101050Z 19007KT 07/01 A2981 RMK A01 T00720006  RH  063%=      5-min Rain = 0
KWE1 101051Z 19006KT 07/01 A2981 RMK A01 T00710006  RH  063%=      5-min Rain = 0
KWE1 101052Z 19006KT 07/01 A2981 RMK A01 T00710006  RH  063%=      5-min Rain = 0
KWE1 101053Z 19006KT 07/01 A2981 RMK A01 T00700005  RH  064%=      5-min Rain = 0
KWE1 101054Z 19006KT 07/01 A2981 RMK A01 T00690005  RH  064%=      5-min Rain = 0
KWE1 101055Z 19006KT 07/01 A2981 RMK A01 T00690005  RH  064%=      5-min Rain = 0
KWE1 101056Z 18006KT 07/00 A298 RMK A01 T00680004  RH  064%=      5-min Rain = 0
KWE1 101057Z 18007KT 07/00 A298 RMK A01 T00670004  RH  064%=      5-min Rain = 0
KWE1 101058Z 18007KT 07/01 A298 RMK A01 T00670005  RH  064%=      5-min Rain = 0
KWE1 101059Z 18006KT 07/01 A298 RMK A01 T00670005  RH  065%=      5-min Rain = 0
KWE1 101100Z 18006KT 07/01 A298 RMK A01 T00670005  RH  065%=      5-min Rain = 0
KWE1 101101Z 18006KT 07/01 A298 RMK A01 T00670005  RH  065%=      5-min Rain = 0
KWE1 101102Z 18006KT 07/01 A298 RMK A01 T00660005  RH  065%=      5-min Rain = 0
KWE1 101103Z 18005KT 07/01 A298 RMK A01 T00660005  RH  065%=      5-min Rain = 0
KWE1 101104Z 18006KT 07/01 A298 RMK A01 T00660005  RH  065%=      5-min Rain = 0
KWE1 101105Z 18005KT 07/01 A298 RMK A01 T00660005  RH  065%=      5-min Rain = 0
KWE1 101106Z 18006KT 07/01 A298 RMK A01 T00660005  RH  065%=      5-min Rain = 0
KWE1 101107Z 18006KT 07/00 A298 RMK A01 T00660004  RH  065%=      5-min Rain = 0
KWE1 101108Z 18006KT 07/01 A298 RMK A01 T00660005  RH  065%=      5-min Rain = 0
KWE1 101109Z 18007KT 07/01 A298 RMK A01 T00660005  RH  065%=      5-min Rain = 0
KWE1 101110Z 18007KT 07/01 A298 RMK A01 T00670006  RH  065%=      5-min Rain = 0
KWE1 101111Z 18008KT 07/01 A298 RMK A01 T00670006  RH  065%=      5-min Rain = 0
KWE1 101112Z 18008KT 07/01 A298 RMK A01 T00680007  RH  065%=      5-min Rain = 0
KWE1 101113Z 18008KT 07/01 A298 RMK A01 T00690008  RH  065%=      5-min Rain = 0
KWE1 101114Z 18008KT 07/01 A298 RMK A01 T00700008  RH  065%=      5-min Rain = 0
KWE1 101115Z 18008KT 07/01 A298 RMK A01 T00710009  RH  065%=      5-min Rain = 0
KWE1 101116Z 18007KT 07/01 A298 RMK A01 T00710009  RH  065%=      5-min Rain = 0
KWE1 101117Z 19007KT 07/01 A298 RMK A01 T00710008  RH  064%=      5-min Rain = 0
KWE1 101118Z 19007KT 07/01 A298 RMK A01 T00710008  RH  064%=      5-min Rain = 0
KWE1 101119Z 19008KT 07/01 A298 RMK A01 T00710008  RH  064%=      5-min Rain = 0
KWE1 101120Z 19009KT 07/01 A298 RMK A01 T00710008  RH  064%=      5-min Rain = 0
KWE1 101121Z 19009KT 07/01 A298 RMK A01 T00710008  RH  064%=      5-min Rain = 0
KWE1 101122Z 19010KT 07/01 A298 RMK A01 T00720009  RH  064%=      5-min Rain = 0
KWE1 101123Z 19010KT 07/01 A298 RMK A01 T00730009  RH  064%=      5-min Rain = 0
KWE1 101124Z 19010KT 07/01 A298 RMK A01 T00730009  RH  064%=      5-min Rain = 0
KWE1 101125Z 19010KT 07/01 A298 RMK A01 T00730009  RH  063%=      5-min Rain = 0
KWE1 101126Z 19011KT 07/01 A298 RMK A01 T00740009  RH  063%=      5-min Rain = 0
KWE1 101127Z 18010KT 07/01 A298 RMK A01 T00740009  RH  063%=      5-min Rain = 0
KWE1 101128Z 18010KT 07/01 A298 RMK A01 T00740009  RH  064%=      5-min Rain = 0
KWE1 101129Z 18010KT 07/01 A298 RMK A01 T00740010  RH  064%=      5-min Rain = 0
KWE1 101130Z 18010KT 08/01 A2979 RMK A01 T00750011  RH  063%=      5-min Rain = 0
KWE1 101131Z 18010KT 08/01 A2979 RMK A01 T00760011  RH  063%=      5-min Rain = 0
KWE1 101132Z 18010KT 08/01 A2979 RMK A01 T00770011  RH  063%=      5-min Rain = 0
KWE1 101133Z 18010KT 08/01 A2979 RMK A01 T00780012  RH  063%=      5-min Rain = 0
KWE1 101134Z 18010KT 08/01 A2979 RMK A01 T00780012  RH  063%=      5-min Rain = 0
KWE1 101135Z 18010KT 08/01 A2979 RMK A01 T00780012  RH  063%=      5-min Rain = 0
KWE1 101136Z 17009KT 08/01 A2979 RMK A01 T00780012  RH  063%=      5-min Rain = 0
KWE1 101137Z 17010KT 08/01 A2979 RMK A01 T00780011  RH  063%=      5-min Rain = 0
KWE1 101138Z 17010KT 08/01 A2979 RMK A01 T00770011  RH  063%=      5-min Rain = 0
KWE1 101139Z 17010KT 08/01 A2979 RMK A01 T00760011  RH  063%=      5-min Rain = 0
KWE1 101140Z 18011KT 08/01 A2979 RMK A01 T00760011  RH  063%=      5-min Rain = 0
KWE1 101141Z 18010KT 08/01 A2979 RMK A01 T00760011  RH  064%=      5-min Rain = 0
KWE1 101142Z 18010KT 08/01 A2979 RMK A01 T00760011  RH  063%=      5-min Rain = 0
KWE1 101143Z 18010KT 08/01 A2979 RMK A01 T00760011  RH  063%=      5-min Rain = 0
KWE1 101144Z 18010KT 08/01 A2979 RMK A01 T00770011  RH  063%=      5-min Rain = 0
KWE1 101145Z 18009KT 08/01 A2979 RMK A01 T00770011  RH  063%=      5-min Rain = 0
KWE1 101146Z 18009KT 08/01 A2979 RMK A01 T00770011  RH  063%=      5-min Rain = 0
KWE1 101147Z 18009KT 08/01 A298 RMK A01 T00760011  RH  063%=      5-min Rain = 0
KWE1 101148Z 18009KT 08/01 A298 RMK A01 T00750010  RH  063%=      5-min Rain = 0
KWE1 101149Z 18009KT 08/01 A298 RMK A01 T00750010  RH  064%=      5-min Rain = 0
KWE1 101150Z 18009KT 07/01 A298 RMK A01 T00740010  RH  064%=      5-min Rain = 0
KWE1 101151Z 18010KT 07/01 A298 RMK A01 T00740011  RH  064%=      5-min Rain = 0
KWE1 101152Z 18010KT 07/01 A298 RMK A01 T00740011  RH  064%=      5-min Rain = 0
KWE1 101153Z 19010KT 08/01 A298 RMK A01 T00750011  RH  064%=      5-min Rain = 0
KWE1 101154Z 18010KT 08/01 A298 RMK A01 T00750011  RH  064%=      5-min Rain = 0
KWE1 101155Z 18010KT 08/01 A298 RMK A01 T00750011  RH  064%=      5-min Rain = 0
KWE1 101156Z 19009KT 08/01 A298 RMK A01 T00750011  RH  064%=      5-min Rain = 0
KWE1 101157Z 19009KT 08/01 A298 RMK A01 T00750011  RH  064%=      5-min Rain = 0
KWE1 101158Z 18009KT 07/01 A298 RMK A01 T00740010  RH  064%=      5-min Rain = 0
KWE1 101159Z 18010KT 07/01 A298 RMK A01 T00740010  RH  064%=      5-min Rain = 0
KWE1 101200Z 19010KT 07/01 A298 RMK A01 T00740011  RH  064%=      5-min Rain = 0
KWE1 101201Z 18011KT 07/01 A298 RMK A01 T00740011  RH  064%=      5-min Rain = 0
KWE1 101202Z 19010KT 07/01 A298 RMK A01 T00740011  RH  064%=      5-min Rain = 0
KWE1 101203Z 19010KT 08/01 A298 RMK A01 T00750012  RH  064%=      5-min Rain = 0
KWE1 101204Z 19010KT 08/01 A298 RMK A01 T00760012  RH  064%=      5-min Rain = 0
KWE1 101205Z 19010KT 08/01 A298 RMK A01 T00770012  RH  063%=      5-min Rain = 0
KWE1 101206Z 19011KT 08/01 A298 RMK A01 T00780012  RH  063%=      5-min Rain = 0
KWE1 101207Z 19011KT 08/01 A298 RMK A01 T00790013  RH  063%=      5-min Rain = 0
KWE1 101208Z 19011KT 08/01 A298 RMK A01 T00800013  RH  062%=      5-min Rain = 0
KWE1 101209Z 19011KT 08/01 A298 RMK A01 T00810013  RH  062%=      5-min Rain = 0
KWE1 101210Z 18011KT 08/01 A298 RMK A01 T00800012  RH  062%=      5-min Rain = 0
KWE1 101211Z 18012KT 08/01 A2979 RMK A01 T00800013  RH  062%=      5-min Rain = 0
KWE1 101212Z 18012KT 08/01 A2979 RMK A01 T00810013  RH  062%=      5-min Rain = 0
KWE1 101213Z 18010KT 08/01 A2979 RMK A01 T00810012  RH  062%=      5-min Rain = 0
KWE1 101214Z 18010KT 08/01 A2979 RMK A01 T00790011  RH  062%=      5-min Rain = 0
KWE1 101215Z 18010KT 08/01 A2979 RMK A01 T00790011  RH  062%=      5-min Rain = 0
KWE1 101216Z 18010KT 08/01 A2979 RMK A01 T00780011  RH  063%=      5-min Rain = 0
KWE1 101217Z 18010KT 08/01 A2979 RMK A01 T00770012  RH  063%=      5-min Rain = 0
KWE1 101218Z 18010KT 08/01 A2979 RMK A01 T00770011  RH  063%=      5-min Rain = 0
KWE1 101219Z 18010KT 08/01 A2979 RMK A01 T00760011  RH  063%=      5-min Rain = 0
KWE1 101220Z 18010KT 08/01 A2979 RMK A01 T00760011  RH  063%=      5-min Rain = 0
KWE1 101221Z 18010KT 08/01 A2979 RMK A01 T00760011  RH  064%=      5-min Rain = 0
KWE1 101222Z 17010KT 08/01 A2979 RMK A01 T00760011  RH  064%=      5-min Rain = 0
KWE1 101223Z 18010KT 08/01 A2979 RMK A01 T00750011  RH  064%=      5-min Rain = 0
KWE1 101224Z 18010KT 08/01 A2979 RMK A01 T00750011  RH  064%=      5-min Rain = 0
KWE1 101225Z 18011KT 08/01 A2979 RMK A01 T00750011  RH  064%=      5-min Rain = 0
KWE1 101226Z 18010KT 08/01 A2979 RMK A01 T00760012  RH  064%=      5-min Rain = 0
KWE1 101227Z 18010KT 08/01 A2979 RMK A01 T00760012  RH  064%=      5-min Rain = 0
KWE1 101228Z 18011KT 08/01 A2979 RMK A01 T00760012  RH  064%=      5-min Rain = 0
KWE1 101229Z 18011KT 08/01 A2979 RMK A01 T00770012  RH  064%=      5-min Rain = 0
KWE1 101230Z 18011KT 08/01 A2979 RMK A01 T00780013  RH  063%=      5-min Rain = 0
KWE1 101231Z 18010KT 08/01 A2979 RMK A01 T00790013  RH  063%=      5-min Rain = 0
KWE1 101232Z 18011KT 08/01 A2979 RMK A01 T00800013  RH  063%=      5-min Rain = 0
KWE1 101233Z 18010KT 08/01 A2979 RMK A01 T00790012  RH  063%=      5-min Rain = 0
KWE1 101234Z 18011KT 08/01 A2979 RMK A01 T00790013  RH  063%=      5-min Rain = 0
KWE1 101235Z 18010KT 08/01 A2979 RMK A01 T00790013  RH  063%=      5-min Rain = 0
KWE1 101236Z 18010KT 08/01 A2979 RMK A01 T00790013  RH  063%=      5-min Rain = 0
KWE1 101237Z 18011KT 08/01 A2979 RMK A01 T00780012  RH  063%=      5-min Rain = 0
KWE1 101238Z 17010KT 08/01 A2979 RMK A01 T00780012  RH  063%=      5-min Rain = 0
KWE1 101239Z 18011KT 08/01 A2979 RMK A01 T00770012  RH  063%=      5-min Rain = 0
KWE1 101240Z 17011KT 08/01 A2979 RMK A01 T00770012  RH  063%=      5-min Rain = 0
KWE1 101241Z 18010KT 08/01 A2979 RMK A01 T00770012  RH  064%=      5-min Rain = 0
KWE1 101242Z 18010KT 08/01 A2979 RMK A01 T00770012  RH  064%=      5-min Rain = 0
KWE1 101243Z 18010KT 08/01 A2979 RMK A01 T00770012  RH  064%=      5-min Rain = 0
KWE1 101244Z 18011KT 08/01 A2979 RMK A01 T00760012  RH  064%=      5-min Rain = 0
KWE1 101245Z 18010KT 08/01 A2979 RMK A01 T00760012  RH  064%=      5-min Rain = 0
KWE1 101246Z 18011KT 08/01 A2979 RMK A01 T00770013  RH  064%=      5-min Rain = 0
KWE1 101247Z 17010KT 08/01 A2979 RMK A01 T00780014  RH  064%=      5-min Rain = 0
KWE1 101248Z 18010KT 08/01 A2979 RMK A01 T00780013  RH  063%=      5-min Rain = 0
KWE1 101249Z 18010KT 08/01 A2979 RMK A01 T00780013  RH  063%=      5-min Rain = 0
KWE1 101250Z 18009KT 08/01 A2979 RMK A01 T00770013  RH  063%=      5-min Rain = 0
KWE1 101251Z 18009KT 08/01 A2979 RMK A01 T00770012  RH  064%=      5-min Rain = 0
KWE1 101252Z 18009KT 08/01 A2979 RMK A01 T00760012  RH  064%=      5-min Rain = 0
KWE1 101253Z 18009KT 08/01 A2979 RMK A01 T00760012  RH  064%=      5-min Rain = 0
KWE1 101254Z 18009KT 08/01 A2979 RMK A01 T00760012  RH  064%=      5-min Rain = 0
KWE1 101255Z 18009KT 08/01 A2979 RMK A01 T00760013  RH  064%=      5-min Rain = 0
KWE1 101256Z 18008KT 08/01 A2979 RMK A01 T00760012  RH  064%=      5-min Rain = 0
KWE1 101257Z 18009KT 08/01 A2979 RMK A01 T00750012  RH  064%=      5-min Rain = 0
KWE1 101258Z 18008KT 08/01 A2979 RMK A01 T00750012  RH  064%=      5-min Rain = 0
KWE1 101259Z 18009KT 07/01 A2979 RMK A01 T00740012  RH  064%=      5-min Rain = 0
KWE1 101300Z 18009KT 07/01 A2979 RMK A01 T00740011  RH  065%=      5-min Rain = 0
KWE1 101301Z 19009KT 07/01 A2979 RMK A01 T00730011  RH  065%=      5-min Rain = 0
KWE1 101302Z 18009KT 07/01 A2979 RMK A01 T00730011  RH  065%=      5-min Rain = 0
KWE1 101303Z 18009KT 07/01 A2979 RMK A01 T00730011  RH  065%=      5-min Rain = 0
KWE1 101304Z 18009KT 07/01 A2979 RMK A01 T00730012  RH  065%=      5-min Rain = 0
KWE1 101305Z 18010KT 07/01 A2979 RMK A01 T00730011  RH  065%=      5-min Rain = 0
KWE1 101306Z 18009KT 07/01 A2979 RMK A01 T00730012  RH  065%=      5-min Rain = 0
KWE1 101307Z 18010KT 07/01 A2979 RMK A01 T00730012  RH  065%=      5-min Rain = 0
KWE1 101308Z 18010KT 07/01 A2979 RMK A01 T00740013  RH  065%=      5-min Rain = 0
KWE1 101309Z 18010KT 08/01 A2979 RMK A01 T00750013  RH  065%=      5-min Rain = 0
KWE1 101310Z 18010KT 08/01 A2979 RMK A01 T00750013  RH  065%=      5-min Rain = 0
KWE1 101311Z 18010KT 08/01 A2979 RMK A01 T00750013  RH  064%=      5-min Rain = 0
KWE1 101312Z 18010KT 08/01 A2979 RMK A01 T00760013  RH  064%=      5-min Rain = 0
KWE1 101313Z 18010KT 08/01 A2979 RMK A01 T00760013  RH  064%=      5-min Rain = 0
KWE1 101314Z 18010KT 08/01 A2979 RMK A01 T00770014  RH  064%=      5-min Rain = 0
KWE1 101315Z 18010KT 08/01 A2979 RMK A01 T00780014  RH  064%=      5-min Rain = 0
KWE1 101316Z 18010KT 08/01 A2979 RMK A01 T00780014  RH  064%=      5-min Rain = 0
KWE1 101317Z 18010KT 08/01 A2978 RMK A01 T00780014  RH  064%=      5-min Rain = 0
KWE1 101318Z 17010KT 08/01 A2978 RMK A01 T00780013  RH  064%=      5-min Rain = 0
KWE1 101319Z 17010KT 08/01 A2978 RMK A01 T00780014  RH  064%=      5-min Rain = 0
KWE1 101320Z 17010KT 08/01 A2978 RMK A01 T00780014  RH  064%=      5-min Rain = 0
KWE1 101321Z 17011KT 08/01 A2978 RMK A01 T00780013  RH  063%=      5-min Rain = 0
KWE1 101322Z 17011KT 08/01 A2978 RMK A01 T00790013  RH  063%=      5-min Rain = 0
KWE1 101323Z 17012KT 08/01 A2978 RMK A01 T00790014  RH  063%=      5-min Rain = 0
KWE1 101324Z 17010KT 08/01 A2978 RMK A01 T00800014  RH  063%=      5-min Rain = 0
KWE1 101325Z 17011KT 08/01 A2978 RMK A01 T00800014  RH  063%=      5-min Rain = 0
KWE1 101326Z 17011KT 08/01 A2978 RMK A01 T00800014  RH  063%=      5-min Rain = 0
KWE1 101327Z 17011KT 08/01 A2978 RMK A01 T00810014  RH  063%=      5-min Rain = 0
KWE1 101328Z 17011KT 08/01 A2978 RMK A01 T00800013  RH  063%=      5-min Rain = 0
KWE1 101329Z 17011KT 08/01 A2977 RMK A01 T00810014  RH  062%=      5-min Rain = 0
KWE1 101330Z 17011KT 08/01 A2977 RMK A01 T00810013  RH  062%=      5-min Rain = 0
KWE1 101331Z 17011KT 08/01 A2977 RMK A01 T00800013  RH  063%=      5-min Rain = 0
KWE1 101332Z 17011KT 08/01 A2977 RMK A01 T00800014  RH  063%=      5-min Rain = 0
KWE1 101333Z 17011KT 08/01 A2977 RMK A01 T00800013  RH  062%=      5-min Rain = 0
KWE1 101334Z 17012KT 08/01 A2977 RMK A01 T00800013  RH  063%=      5-min Rain = 0
KWE1 101335Z 17011KT 08/01 A2977 RMK A01 T00800013  RH  063%=      5-min Rain = 0
KWE1 101336Z 17011KT 08/01 A2977 RMK A01 T00800013  RH  063%=      5-min Rain = 0
KWE1 101337Z 17012KT 08/01 A2977 RMK A01 T00800013  RH  063%=      5-min Rain = 0
KWE1 101338Z 17012KT 08/01 A2977 RMK A01 T00800013  RH  063%=      5-min Rain = 0
KWE1 101339Z 17012KT 08/01 A2977 RMK A01 T00810014  RH  063%=      5-min Rain = 0
KWE1 101340Z 17012KT 08/01 A2977 RMK A01 T00810014  RH  062%=      5-min Rain = 0
KWE1 101341Z 17011KT 08/01 A2977 RMK A01 T00820013  RH  062%=      5-min Rain = 0
KWE1 101342Z 17011KT 08/01 A2977 RMK A01 T00820013  RH  062%=      5-min Rain = 0
KWE1 101343Z 17011KT 08/01 A2977 RMK A01 T00820013  RH  062%=      5-min Rain = 0
KWE1 101344Z 17010KT 08/01 A2977 RMK A01 T00820013  RH  062%=      5-min Rain = 0
KWE1 101345Z 17010KT 08/01 A2977 RMK A01 T00820013  RH  062%=      5-min Rain = 0
KWE1 101346Z 17011KT 08/01 A2977 RMK A01 T00820013  RH  062%=      5-min Rain = 0
KWE1 101347Z 17011KT 08/01 A2977 RMK A01 T00820014  RH  062%=      5-min Rain = 0
KWE1 101348Z 16009KT 08/01 A2977 RMK A01 T00830014  RH  062%=      5-min Rain = 0
KWE1 101349Z 17008KT 08/01 A2977 RMK A01 T00830014  RH  062%=      5-min Rain = 0
KWE1 101350Z 17009KT 08/01 A2977 RMK A01 T00820013  RH  062%=      5-min Rain = 0
KWE1 101351Z 16010KT 08/01 A2977 RMK A01 T00820013  RH  062%=      5-min Rain = 0
KWE1 101352Z 16010KT 08/01 A2977 RMK A01 T00820013  RH  062%=      5-min Rain = 0
KWE1 101353Z 16010KT 08/01 A2977 RMK A01 T00810012  RH  062%=      5-min Rain = 0
KWE1 101354Z 16010KT 08/01 A2977 RMK A01 T00790012  RH  062%=      5-min Rain = 0
KWE1 101355Z 16010KT 08/01 A2977 RMK A01 T00780012  RH  063%=      5-min Rain = 0
KWE1 101356Z 16010KT 08/01 A2977 RMK A01 T00770012  RH  063%=      5-min Rain = 0
KWE1 101357Z 16010KT 08/01 A2977 RMK A01 T00770012  RH  063%=      5-min Rain = 0
KWE1 101358Z 16011KT 08/01 A2977 RMK A01 T00770012  RH  063%=      5-min Rain = 0
KWE1 101359Z 16010KT 08/01 A2977 RMK A01 T00770012  RH  063%=      5-min Rain = 0
KWE1 101400Z 17010KT 08/01 A2977 RMK A01 T00780012  RH  063%=      5-min Rain = 0
KWE1 101401Z 16011KT 08/01 A2976 RMK A01 T00790013  RH  063%=      5-min Rain = 0
KWE1 101402Z 16010KT 08/01 A2976 RMK A01 T00800013  RH  063%=      5-min Rain = 0
KWE1 101403Z 16011KT 08/01 A2976 RMK A01 T00820014  RH  062%=      5-min Rain = 0
KWE1 101404Z 16011KT 08/01 A2976 RMK A01 T00830014  RH  062%=      5-min Rain = 0
KWE1 101405Z 16011KT 08/01 A2976 RMK A01 T00840014  RH  061%=      5-min Rain = 0
KWE1 101406Z 16010KT 08/01 A2976 RMK A01 T00840013  RH  061%=      5-min Rain = 0
KWE1 101407Z 17010KT 08/01 A2977 RMK A01 T00840013  RH  061%=      5-min Rain = 0
KWE1 101408Z 17011KT 08/01 A2977 RMK A01 T00830013  RH  061%=      5-min Rain = 0
KWE1 101409Z 17010KT 08/01 A2977 RMK A01 T00830013  RH  062%=      5-min Rain = 0
KWE1 101410Z 18010KT 08/01 A2977 RMK A01 T00830013  RH  062%=      5-min Rain = 0
KWE1 101411Z 17010KT 08/01 A2977 RMK A01 T00830014  RH  062%=      5-min Rain = 0
KWE1 101412Z 18010KT 08/01 A2977 RMK A01 T00840014  RH  061%=      5-min Rain = 0
KWE1 101413Z 18009KT 08/01 A2977 RMK A01 T00840014  RH  061%=      5-min Rain = 0
KWE1 101414Z 18010KT 08/01 A2977 RMK A01 T00840014  RH  061%=      5-min Rain = 0
KWE1 101415Z 18008KT 08/01 A2977 RMK A01 T00840014  RH  061%=      5-min Rain = 0
KWE1 101416Z 18008KT 08/01 A2977 RMK A01 T00840014  RH  061%=      5-min Rain = 0
KWE1 101417Z 18008KT 09/01 A2978 RMK A01 T00850014  RH  061%=      5-min Rain = 0
KWE1 101418Z 19008KT 09/02 A2978 RMK A01 T00850015  RH  061%=      5-min Rain = 0
KWE1 101419Z 18007KT 09/02 A2978 RMK A01 T00860015  RH  061%=      5-min Rain = 0
KWE1 101420Z 18008KT 09/02 A2978 RMK A01 T00870016  RH  061%=      5-min Rain = 0
KWE1 101421Z 18008KT 09/02 A2977 RMK A01 T00880017  RH  061%=      5-min Rain = 0
KWE1 101422Z 18008KT 09/02 A2977 RMK A01 T00900017  RH  060%=      5-min Rain = 0
KWE1 101423Z 18008KT 09/02 A2977 RMK A01 T00920018  RH  060%=      5-min Rain = 0
KWE1 101424Z 18008KT 09/02 A2977 RMK A01 T00930018  RH  059%=      5-min Rain = 0
KWE1 101425Z 18009KT 09/02 A2977 RMK A01 T00940018  RH  059%=      5-min Rain = 0
KWE1 101426Z 17010KT 10/02 A2977 RMK A01 T00950019  RH  059%=      5-min Rain = 0
KWE1 101427Z 17011KT 10/02 A2977 RMK A01 T00960018  RH  058%=      5-min Rain = 0
KWE1 101428Z 17011KT 10/02 A2977 RMK A01 T00970019  RH  058%=      5-min Rain = 0
KWE1 101429Z 17011KT 10/02 A2977 RMK A01 T00990019  RH  057%=      5-min Rain = 0
KWE1 101430Z 18010KT 10/02 A2977 RMK A01 T01010019  RH  057%=      5-min Rain = 0
KWE1 101431Z 17009KT 10/02 A2977 RMK A01 T01020019  RH  057%=      5-min Rain = 0
KWE1 101432Z 17010KT 10/02 A2977 RMK A01 T01020020  RH  057%=      5-min Rain = 0
KWE1 101433Z 17010KT 10/02 A2977 RMK A01 T01030020  RH  056%=      5-min Rain = 0
KWE1 101434Z 17010KT 10/02 A2977 RMK A01 T01030019  RH  056%=      5-min Rain = 0
KWE1 101435Z 18010KT 10/02 A2977 RMK A01 T01040020  RH  056%=      5-min Rain = 0
KWE1 101436Z 18010KT 10/02 A2977 RMK A01 T01040019  RH  056%=      5-min Rain = 0
KWE1 101437Z 18010KT 11/02 A2977 RMK A01 T01050019  RH  056%=      5-min Rain = 0
KWE1 101438Z 18010KT 11/02 A2977 RMK A01 T01050020  RH  056%=      5-min Rain = 0
KWE1 101439Z 18010KT 11/02 A2977 RMK A01 T01060020  RH  055%=      5-min Rain = 0
KWE1 101440Z 18010KT 11/02 A2977 RMK A01 T01070020  RH  055%=      5-min Rain = 0
KWE1 101441Z 17009KT 11/02 A2977 RMK A01 T01080020  RH  055%=      5-min Rain = 0
KWE1 101442Z 17010KT 11/02 A2977 RMK A01 T01070020  RH  055%=      5-min Rain = 0
KWE1 101443Z 17010KT 11/02 A2977 RMK A01 T01070020  RH  055%=      5-min Rain = 0
KWE1 101444Z 18010KT 11/02 A2977 RMK A01 T01060020  RH  055%=      5-min Rain = 0
KWE1 101445Z 17010KT 11/02 A2977 RMK A01 T01060020  RH  055%=      5-min Rain = 0
KWE1 101446Z 16011KT 11/02 A2977 RMK A01 T01060020  RH  055%=      5-min Rain = 0
KWE1 101447Z 17010KT 11/02 A2977 RMK A01 T01070020  RH  055%=      5-min Rain = 0
KWE1 101448Z 16009KT 11/02 A2977 RMK A01 T01060020  RH  055%=      5-min Rain = 0
KWE1 101449Z 16010KT 11/02 A2977 RMK A01 T01060020  RH  055%=      5-min Rain = 0
KWE1 101450Z 16010KT 10/02 A2977 RMK A01 T01040020  RH  056%=      5-min Rain = 0
KWE1 101451Z 16009KT 10/02 A2977 RMK A01 T01040020  RH  056%=      5-min Rain = 0
KWE1 101452Z 16008KT 10/02 A2977 RMK A01 T01030020  RH  056%=      5-min Rain = 0
KWE1 101453Z 17009KT 10/02 A2977 RMK A01 T01030020  RH  057%=      5-min Rain = 0
KWE1 101454Z 16009KT 10/02 A2977 RMK A01 T01030020  RH  056%=      5-min Rain = 0
KWE1 101455Z 17009KT 10/02 A2977 RMK A01 T01040020  RH  056%=      5-min Rain = 0
KWE1 101456Z 16009KT 10/02 A2977 RMK A01 T01040021  RH  056%=      5-min Rain = 0
KWE1 101457Z 16009KT 10/02 A2977 RMK A01 T01040021  RH  056%=      5-min Rain = 0
KWE1 101458Z 15009KT 10/02 A2977 RMK A01 T01040021  RH  057%=      5-min Rain = 0
KWE1 101459Z 15009KT 10/02 A2977 RMK A01 T01040022  RH  057%=      5-min Rain = 0
KWE1 101500Z 16011KT 10/02 A2977 RMK A01 T01030022  RH  057%=      5-min Rain = 0
KWE1 101501Z 15010KT 10/02 A2977 RMK A01 T01040021  RH  057%=      5-min Rain = 0
KWE1 101502Z 16008KT 11/02 A2977 RMK A01 T01050022  RH  056%=      5-min Rain = 0
KWE1 101503Z 16010KT 11/02 A2977 RMK A01 T01050022  RH  057%=      5-min Rain = 0
KWE1 101504Z 16009KT 11/02 A2977 RMK A01 T01060022  RH  056%=      5-min Rain = 0
KWE1 101505Z 15010KT 11/02 A2977 RMK A01 T01060022  RH  056%=      5-min Rain = 0
KWE1 101506Z 15012KT 11/02 A2977 RMK A01 T01070023  RH  056%=      5-min Rain = 0
KWE1 101507Z 16011KT 11/02 A2977 RMK A01 T01070023  RH  056%=      5-min Rain = 0
KWE1 101508Z 16011KT 11/02 A2977 RMK A01 T01080022  RH  055%=      5-min Rain = 0
KWE1 101509Z 16011KT 11/02 A2977 RMK A01 T01090022  RH  055%=      5-min Rain = 0
KWE1 101510Z 15011KT 11/02 A2977 RMK A01 T01090023  RH  055%=      5-min Rain = 0
KWE1 101511Z 16010KT 11/02 A2977 RMK A01 T01100023  RH  055%=      5-min Rain = 0
KWE1 101512Z 16010KT 11/02 A2977 RMK A01 T01100023  RH  055%=      5-min Rain = 0
KWE1 101513Z 17010KT 11/02 A2977 RMK A01 T01110023  RH  055%=      5-min Rain = 0
KWE1 101514Z 17011KT 11/02 A2977 RMK A01 T01110024  RH  055%=      5-min Rain = 0
KWE1 101515Z 17012KT 11/02 A2977 RMK A01 T01130023  RH  054%=      5-min Rain = 0
KWE1 101516Z 17014KT 11/02 A2977 RMK A01 T01140023  RH  053%=      5-min Rain = 0
KWE1 101517Z 18012KT 12/02 A2977 RMK A01 T01150022  RH  053%=      5-min Rain = 0
KWE1 101518Z 18011KT 12/02 A2977 RMK A01 T01160023  RH  053%=      5-min Rain = 0
KWE1 101519Z 17012KT 12/02 A2977 RMK A01 T01160023  RH  053%=      5-min Rain = 0
KWE1 101520Z 18011KT 12/02 A2977 RMK A01 T01160024  RH  053%=      5-min Rain = 0
KWE1 101521Z 17010KT 12/02 A2977 RMK A01 T01160024  RH  053%=      5-min Rain = 0
KWE1 101522Z 17010KT 12/02 A2977 RMK A01 T01160024  RH  053%=      5-min Rain = 0
KWE1 101523Z 17011KT 12/02 A2977 RMK A01 T01160024  RH  053%=      5-min Rain = 0
KWE1 101524Z 17010KT 12/02 A2977 RMK A01 T01170024  RH  053%=      5-min Rain = 0
KWE1 101525Z 18010KT 12/02 A2977 RMK A01 T01180024  RH  053%=      5-min Rain = 0
KWE1 101526Z 17010KT 12/02 A2977 RMK A01 T01190024  RH  052%=      5-min Rain = 0
KWE1 101527Z 18009KT 12/02 A2978 RMK A01 T01190024  RH  052%=      5-min Rain = 0
KWE1 101528Z 18010KT 12/02 A2978 RMK A01 T01200024  RH  052%=      5-min Rain = 0
KWE1 101529Z 19009KT 12/03 A2978 RMK A01 T01210025  RH  052%=      5-min Rain = 0
KWE1 101530Z 18011KT 12/02 A2978 RMK A01 T01220024  RH  051%=      5-min Rain = 0
KWE1 101531Z 19011KT 12/02 A2978 RMK A01 T01230023  RH  051%=      5-min Rain = 0
KWE1 101532Z 18011KT 12/03 A2978 RMK A01 T01240025  RH  051%=      5-min Rain = 0
KWE1 101533Z 18012KT 12/02 A2978 RMK A01 T01240024  RH  050%=      5-min Rain = 0
KWE1 101534Z 18011KT 12/02 A2978 RMK A01 T01240024  RH  050%=      5-min Rain = 0
KWE1 101535Z 19011KT 12/02 A2978 RMK A01 T01240024  RH  050%=      5-min Rain = 0
KWE1 101536Z 18011KT 12/02 A2978 RMK A01 T01240024  RH  050%=      5-min Rain = 0
KWE1 101537Z 19009KT 12/02 A2978 RMK A01 T01240024  RH  050%=      5-min Rain = 0
KWE1 101538Z 19009KT 12/03 A2978 RMK A01 T01240025  RH  051%=      5-min Rain = 0
KWE1 101539Z 18009KT 13/03 A2978 RMK A01 T01250025  RH  051%=      5-min Rain = 0
KWE1 101540Z 19009KT 12/03 A2978 RMK A01 T01240026  RH  051%=      5-min Rain = 0
KWE1 101541Z 19009KT 13/03 A2978 RMK A01 T01250026  RH  051%=      5-min Rain = 0
KWE1 101542Z 19009KT 12/03 A2978 RMK A01 T01240025  RH  051%=      5-min Rain = 0
KWE1 101543Z 19010KT 13/03 A2979 RMK A01 T01250025  RH  051%=      5-min Rain = 0
KWE1 101544Z 20008KT 13/03 A2979 RMK A01 T01250025  RH  051%=      5-min Rain = 0
KWE1 101545Z 19009KT 13/03 A2979 RMK A01 T01250025  RH  051%=      5-min Rain = 0
KWE1 101546Z 19010KT 13/03 A2979 RMK A01 T01250026  RH  051%=      5-min Rain = 0
KWE1 101547Z 19010KT 13/03 A2979 RMK A01 T01250025  RH  051%=      5-min Rain = 0
KWE1 101548Z 19009KT 13/03 A2979 RMK A01 T01250026  RH  051%=      5-min Rain = 0
KWE1 101549Z 20009KT 13/03 A2979 RMK A01 T01250026  RH  051%=      5-min Rain = 0
KWE1 101550Z 19009KT 13/03 A2979 RMK A01 T01250026  RH  051%=      5-min Rain = 0
KWE1 101551Z 20010KT 13/03 A2979 RMK A01 T01250026  RH  051%=      5-min Rain = 0
KWE1 101552Z 19009KT 13/03 A2979 RMK A01 T01250025  RH  051%=      5-min Rain = 0
KWE1 101553Z 19009KT 13/03 A2978 RMK A01 T01250026  RH  051%=      5-min Rain = 0
KWE1 101554Z 19010KT 13/03 A2978 RMK A01 T01260026  RH  051%=      5-min Rain = 0
KWE1 101555Z 19009KT 13/03 A2978 RMK A01 T01260026  RH  051%=      5-min Rain = 0
KWE1 101556Z 19009KT 13/03 A2978 RMK A01 T01260026  RH  051%=      5-min Rain = 0
KWE1 101557Z 19009KT 13/03 A2978 RMK A01 T01260027  RH  051%=      5-min Rain = 0
KWE1 101558Z 18010KT 13/03 A2978 RMK A01 T01270028  RH  051%=      5-min Rain = 0
KWE1 101559Z 18010KT 13/03 A2978 RMK A01 T01270028  RH  051%=      5-min Rain = 0
KWE1 101600Z 18010KT 13/03 A2978 RMK A01 T01280027  RH  050%=      5-min Rain = 0
KWE1 101601Z 19010KT 13/03 A2978 RMK A01 T01280027  RH  050%=      5-min Rain = 0
KWE1 101602Z 18011KT 13/03 A2978 RMK A01 T01280028  RH  050%=      5-min Rain = 0
KWE1 101603Z 18011KT 13/03 A2978 RMK A01 T01290027  RH  050%=      5-min Rain = 0
KWE1 101604Z 19010KT 13/03 A2978 RMK A01 T01290028  RH  050%=      5-min Rain = 0
KWE1 101605Z 19008KT 13/03 A2978 RMK A01 T01290028  RH  050%=      5-min Rain = 0
KWE1 101606Z 19010KT 13/03 A2978 RMK A01 T01310029  RH  050%=      5-min Rain = 0
KWE1 101607Z 19010KT 13/03 A2978 RMK A01 T01310029  RH  050%=      5-min Rain = 0
KWE1 101608Z 18009KT 13/03 A2978 RMK A01 T01320029  RH  050%=      5-min Rain = 0
KWE1 101609Z 18011KT 13/03 A2978 RMK A01 T01340030  RH  049%=      5-min Rain = 0
KWE1 101610Z 19011KT 14/03 A2978 RMK A01 T01350030  RH  049%=      5-min Rain = 0
KWE1 101611Z 18012KT 14/03 A2978 RMK A01 T01360030  RH  049%=      5-min Rain = 0
KWE1 101612Z 18011KT 14/03 A2978 RMK A01 T01360029  RH  048%=      5-min Rain = 0
KWE1 101613Z 18011KT 14/03 A2977 RMK A01 T01360029  RH  048%=      5-min Rain = 0
KWE1 101614Z 18013KT 14/03 A2977 RMK A01 T01370029  RH  048%=      5-min Rain = 0
KWE1 101615Z 18012KT 14/03 A2977 RMK A01 T01380028  RH  047%=      5-min Rain = 0
KWE1 101616Z 17011KT 14/03 A2977 RMK A01 T01380028  RH  047%=      5-min Rain = 0
KWE1 101617Z 16011KT 14/03 A2977 RMK A01 T01390028  RH  047%=      5-min Rain = 0
KWE1 101618Z 17010KT 14/03 A2977 RMK A01 T01400030  RH  047%=      5-min Rain = 0
KWE1 101619Z 17012KT 14/03 A2977 RMK A01 T01410030  RH  047%=      5-min Rain = 0
KWE1 101620Z 17012KT 14/03 A2977 RMK A01 T01420029  RH  047%=      5-min Rain = 0
KWE1 101621Z 17011KT 14/03 A2977 RMK A01 T01420029  RH  047%=      5-min Rain = 0
KWE1 101622Z 17011KT 14/03 A2977 RMK A01 T01420030  RH  047%=      5-min Rain = 0
KWE1 101623Z 17013KT 14/03 A2976 RMK A01 T01430030  RH  047%=      5-min Rain = 0
KWE1 101624Z 16013KT 14/03 A2976 RMK A01 T01430030  RH  047%=      5-min Rain = 0
KWE1 101625Z 17015KT 14/03 A2976 RMK A01 T01430030  RH  046%=      5-min Rain = 0
KWE1 101626Z 17013KT 14/03 A2976 RMK A01 T01440030  RH  046%=      5-min Rain = 0
KWE1 101627Z 17011KT 14/03 A2976 RMK A01 T01440030  RH  046%=      5-min Rain = 0
KWE1 101628Z 17012KT 15/03 A2976 RMK A01 T01450031  RH  046%=      5-min Rain = 0
KWE1 101629Z 17010KT 15/03 A2976 RMK A01 T01460030  RH  046%=      5-min Rain = 0
KWE1 101630Z 17012KT 15/03 A2976 RMK A01 T01460032  RH  046%=      5-min Rain = 0
KWE1 101631Z 17013KT 15/03 A2976 RMK A01 T01470031  RH  046%=      5-min Rain = 0
KWE1 101632Z 17011KT 15/03 A2976 RMK A01 T01480031  RH  046%=      5-min Rain = 0
KWE1 101633Z 18011KT 15/03 A2976 RMK A01 T01480031  RH  045%=      5-min Rain = 0
KWE1 101634Z 17011KT 15/03 A2976 RMK A01 T01480031  RH  045%=      5-min Rain = 0
KWE1 101635Z 17013KT 15/03 A2976 RMK A01 T01490031  RH  045%=      5-min Rain = 0
KWE1 101636Z 17014KT 15/03 A2975 RMK A01 T01500032  RH  045%=      5-min Rain = 0
KWE1 101637Z 17014KT 15/03 A2975 RMK A01 T01500032  RH  045%=      5-min Rain = 0
KWE1 101638Z 17011KT 15/03 A2975 RMK A01 T01510032  RH  045%=      5-min Rain = 0
KWE1 101639Z 17012KT 15/03 A2975 RMK A01 T01530033  RH  045%=      5-min Rain = 0
KWE1 101640Z 16011KT 15/03 A2975 RMK A01 T01540033  RH  044%=      5-min Rain = 0
KWE1 101641Z 17010KT 16/04 A2974 RMK A01 T01560035  RH  044%=      5-min Rain = 0
KWE1 101642Z 16012KT 16/04 A2974 RMK A01 T01580036  RH  044%=      5-min Rain = 0
KWE1 101643Z 17011KT 16/04 A2974 RMK A01 T01600035  RH  043%=      5-min Rain = 0
KWE1 101644Z 17011KT 16/03 A2975 RMK A01 T01600034  RH  043%=      5-min Rain = 0
KWE1 101645Z 18011KT 16/03 A2975 RMK A01 T01600034  RH  043%=      5-min Rain = 0
KWE1 101646Z 18015KT 16/03 A2975 RMK A01 T01610034  RH  043%=      5-min Rain = 0
KWE1 101647Z 17014KT 16/03 A2975 RMK A01 T01610032  RH  042%=      5-min Rain = 0
KWE1 101648Z 17014KT 16/03 A2975 RMK A01 T01600032  RH  042%=      5-min Rain = 0
KWE1 101649Z 18014KT 16/03 A2975 RMK A01 T01590031  RH  042%=      5-min Rain = 0
KWE1 101650Z 18014KT 16/03 A2975 RMK A01 T01590032  RH  043%=      5-min Rain = 0
KWE1 101651Z 18013KT 16/03 A2975 RMK A01 T01590031  RH  042%=      5-min Rain = 0
KWE1 101652Z 17012KT 16/03 A2975 RMK A01 T01600032  RH  042%=      5-min Rain = 0
KWE1 101653Z 19010KT 16/03 A2975 RMK A01 T01610033  RH  042%=      5-min Rain = 0
KWE1 101654Z 19013KT 16/03 A2976 RMK A01 T01620033  RH  042%=      5-min Rain = 0
KWE1 101655Z 19014KT 16/03 A2976 RMK A01 T01620032  RH  042%=      5-min Rain = 0
KWE1 101656Z 18015KT 16/03 A2975 RMK A01 T01620031  RH  042%=      5-min Rain = 0
KWE1 101657Z 18014KT 16/03 A2975 RMK A01 T01610030  RH  041%=      5-min Rain = 0
KWE1 101658Z 18014KT 16/03 A2975 RMK A01 T01610030  RH  042%=      5-min Rain = 0
KWE1 101659Z 17011KT 16/03 A2975 RMK A01 T01600030  RH  042%=      5-min Rain = 0
KWE1 101700Z 17013G18KT 16/03 A2975 RMK A01 T01600031  RH  042%=      5-min Rain = 0
KWE1 101701Z 17014KT 16/03 A2974 RMK A01 T01600030  RH  041%=      5-min Rain = 0
KWE1 101702Z 17015KT 16/03 A2974 RMK A01 T01600030  RH  042%=      5-min Rain = 0
KWE1 101703Z 18014KT 16/03 A2974 RMK A01 T01600029  RH  041%=      5-min Rain = 0
KWE1 101704Z 17015KT 16/03 A2974 RMK A01 T01610030  RH  041%=      5-min Rain = 0
KWE1 101705Z 17013KT 16/03 A2974 RMK A01 T01600030  RH  041%=      5-min Rain = 0
KWE1 101706Z 18012KT 16/03 A2974 RMK A01 T01610030  RH  042%=      5-min Rain = 0
KWE1 101707Z 19013G19KT 16/03 A2975 RMK A01 T01610029  RH  041%=      5-min Rain = 0
KWE1 101708Z 19013KT 16/03 A2975 RMK A01 T01610030  RH  041%=      5-min Rain = 0
KWE1 101709Z 18011KT 16/03 A2975 RMK A01 T01610030  RH  041%=      5-min Rain = 0
KWE1 101710Z 19014KT 16/03 A2975 RMK A01 T01620031  RH  041%=      5-min Rain = 0
KWE1 101711Z 19013KT 16/03 A2975 RMK A01 T01630031  RH  041%=      5-min Rain = 0
KWE1 101712Z 18015KT 16/03 A2975 RMK A01 T01630031  RH  041%=      5-min Rain = 0
KWE1 101713Z 18013KT 16/03 A2974 RMK A01 T01630030  RH  041%=      5-min Rain = 0
KWE1 101714Z 18012KT 16/03 A2974 RMK A01 T01630031  RH  041%=      5-min Rain = 0
KWE1 101715Z 19014KT 17/03 A2974 RMK A01 T01650032  RH  041%=      5-min Rain = 0
KWE1 101716Z 18015KT 17/03 A2974 RMK A01 T01650031  RH  041%=      5-min Rain = 0
KWE1 101717Z 18017KT 17/03 A2974 RMK A01 T01650031  RH  041%=      5-min Rain = 0
KWE1 101718Z 18016KT 17/03 A2974 RMK A01 T01650031  RH  041%=      5-min Rain = 0
KWE1 101719Z 19014KT 17/03 A2975 RMK A01 T01650031  RH  041%=      5-min Rain = 0
KWE1 101720Z 19016KT 17/03 A2974 RMK A01 T01670032  RH  041%=      5-min Rain = 0
KWE1 101721Z 18016KT 17/03 A2974 RMK A01 T01690034  RH  040%=      5-min Rain = 0
KWE1 101722Z 19016KT 17/03 A2974 RMK A01 T01710034  RH  040%=      5-min Rain = 0
KWE1 101723Z 18015KT 17/03 A2974 RMK A01 T01710033  RH  040%=      5-min Rain = 0
KWE1 101724Z 19015KT 17/03 A2974 RMK A01 T01720034  RH  040%=      5-min Rain = 0
KWE1 101725Z 19016KT 18/04 A2974 RMK A01 T01750036  RH  040%=      5-min Rain = 0
KWE1 101726Z 19014KT 18/04 A2974 RMK A01 T01770036  RH  039%=      5-min Rain = 0
KWE1 101727Z 19015KT 18/04 A2974 RMK A01 T01790036  RH  039%=      5-min Rain = 0
KWE1 101728Z 19013G18KT 18/04 A2974 RMK A01 T01810039  RH  039%=      5-min Rain = 0
KWE1 101729Z 19016KT 18/04 A2973 RMK A01 T01840038  RH  038%=      5-min Rain = 0
KWE1 101730Z 19018KT 18/04 A2973 RMK A01 T01840038  RH  038%=      5-min Rain = 0
KWE1 101731Z 18015KT 19/04 A2973 RMK A01 T01850036  RH  037%=      5-min Rain = 0
KWE1 101732Z 18015KT 19/04 A2973 RMK A01 T01850037  RH  037%=      5-min Rain = 0
KWE1 101733Z 18012KT 18/03 A2973 RMK A01 T01840034  RH  037%=      5-min Rain = 0
KWE1 101734Z 18012KT 18/04 A2973 RMK A01 T01830036  RH  038%=      5-min Rain = 0
KWE1 101735Z 18013KT 18/04 A2973 RMK A01 T01840036  RH  037%=      5-min Rain = 0
KWE1 101736Z 19016KT 18/04 A2973 RMK A01 T01840035  RH  037%=      5-min Rain = 0
KWE1 101737Z 20017KT 18/03 A2973 RMK A01 T01840034  RH  037%=      5-min Rain = 0
KWE1 101738Z 20016KT 19/04 A2972 RMK A01 T01850035  RH  037%=      5-min Rain = 0
KWE1 101739Z 19017KT 19/04 A2972 RMK A01 T01870036  RH  037%=      5-min Rain = 0
KWE1 101740Z 18016KT 19/04 A2972 RMK A01 T01890036  RH  036%=      5-min Rain = 0
KWE1 101741Z 17016KT 19/04 A2973 RMK A01 T01880036  RH  036%=      5-min Rain = 0
KWE1 101742Z 18016KT 19/04 A2973 RMK A01 T01880035  RH  036%=      5-min Rain = 0
KWE1 101743Z 17015KT 19/04 A2973 RMK A01 T01880036  RH  036%=      5-min Rain = 0
KWE1 101744Z 17014KT 19/03 A2973 RMK A01 T01880034  RH  036%=      5-min Rain = 0
KWE1 101745Z 18014KT 19/03 A2973 RMK A01 T01850033  RH  036%=      5-min Rain = 0
KWE1 101746Z 18015KT 18/03 A2973 RMK A01 T01830032  RH  037%=      5-min Rain = 0
KWE1 101747Z 19016G21KT 18/03 A2973 RMK A01 T01820034  RH  037%=      5-min Rain = 0
KWE1 101748Z 20015KT 18/04 A2973 RMK A01 T01840035  RH  037%=      5-min Rain = 0
KWE1 101749Z 20019KT 19/03 A2973 RMK A01 T01860034  RH  036%=      5-min Rain = 0
KWE1 101750Z 19017G22KT 19/03 A2973 RMK A01 T01850033  RH  036%=      5-min Rain = 0
KWE1 101751Z 19015KT 19/04 A2973 RMK A01 T01860035  RH  037%=      5-min Rain = 0
KWE1 101752Z 18015KT 19/04 A2973 RMK A01 T01890037  RH  037%=      5-min Rain = 0
KWE1 101753Z 18016KT 19/04 A2973 RMK A01 T01910038  RH  036%=      5-min Rain = 0
KWE1 101754Z 18016KT 19/04 A2973 RMK A01 T01920036  RH  036%=      5-min Rain = 0
KWE1 101755Z 20018KT 19/04 A2973 RMK A01 T01910035  RH  036%=      5-min Rain = 0
KWE1 101756Z 19013KT 19/03 A2972 RMK A01 T01890034  RH  036%=      5-min Rain = 0
KWE1 101757Z 18014KT 19/04 A2972 RMK A01 T01900035  RH  036%=      5-min Rain = 0
KWE1 101758Z 18018KT 19/04 A2972 RMK A01 T01900035  RH  036%=      5-min Rain = 0
KWE1 101759Z 19018KT 19/04 A2972 RMK A01 T01900035  RH  036%=      5-min Rain = 0
KWE1 101800Z 20015KT 19/04 A2972 RMK A01 T01910035  RH  035%=      5-min Rain = 0
KWE1 101801Z 18014KT 19/04 A2972 RMK A01 T01920035  RH  035%=      5-min Rain = 0
KWE1 101802Z 20017G22KT 19/04 A2972 RMK A01 T01930036  RH  035%=      5-min Rain = 0
KWE1 101803Z 19018KT 19/04 A2972 RMK A01 T01930035  RH  035%=      5-min Rain = 0
KWE1 101804Z 18018KT 19/04 A2971 RMK A01 T01940036  RH  035%=      5-min Rain = 0
KWE1 101805Z 19015KT 20/04 A2971 RMK A01 T01950037  RH  035%=      5-min Rain = 0
KWE1 101806Z 18018KT 20/04 A2971 RMK A01 T01980038  RH  035%=      5-min Rain = 0
KWE1 101807Z 19021KT 20/04 A2971 RMK A01 T01980037  RH  034%=      5-min Rain = 0
KWE1 101808Z 19019KT 20/04 A297 RMK A01 T01970036  RH  034%=      5-min Rain = 0
KWE1 101809Z 19017KT 20/04 A297 RMK A01 T01970035  RH  034%=      5-min Rain = 0
KWE1 101810Z 19019KT 20/04 A297 RMK A01 T01960035  RH  035%=      5-min Rain = 0
KWE1 101811Z 20016G21KT 20/04 A297 RMK A01 T01960035  RH  035%=      5-min Rain = 0
KWE1 101812Z 20015KT 20/04 A297 RMK A01 T01970037  RH  035%=      5-min Rain = 0
KWE1 101813Z 21017KT 20/04 A297 RMK A01 T01990036  RH  034%=      5-min Rain = 0
KWE1 101814Z 18017KT 20/04 A297 RMK A01 T01970035  RH  034%=      5-min Rain = 0
KWE1 101815Z 18017KT 20/04 A297 RMK A01 T01960035  RH  034%=      5-min Rain = 0
KWE1 101816Z 18018KT 20/04 A297 RMK A01 T01960035  RH  034%=      5-min Rain = 0
KWE1 101817Z 18017KT 20/04 A297 RMK A01 T01960035  RH  034%=      5-min Rain = 0
KWE1 101818Z 18016KT 20/04 A297 RMK A01 T01970035  RH  034%=      5-min Rain = 0
KWE1 101819Z 19016KT 20/04 A297 RMK A01 T01960035  RH  034%=      5-min Rain = 0
KWE1 101820Z 19015KT 20/04 A297 RMK A01 T01960035  RH  034%=      5-min Rain = 0
KWE1 101821Z 20013KT 20/04 A297 RMK A01 T01990037  RH  034%=      5-min Rain = 0
KWE1 101822Z 20014KT 20/04 A297 RMK A01 T02010038  RH  034%=      5-min Rain = 0
KWE1 101823Z 20016KT 20/04 A297 RMK A01 T02040039  RH  034%=      5-min Rain = 0
KWE1 101824Z 20018KT 21/04 A297 RMK A01 T02050037  RH  033%=      5-min Rain = 0
KWE1 101825Z 20015KT 20/03 A297 RMK A01 T02020034  RH  033%=      5-min Rain = 0
KWE1 101826Z 20018KT 20/04 A297 RMK A01 T02000035  RH  034%=      5-min Rain = 0
KWE1 101827Z 20016KT 20/04 A297 RMK A01 T02000035  RH  034%=      5-min Rain = 0
KWE1 101828Z 21017KT 20/04 A297 RMK A01 T02000035  RH  034%=      5-min Rain = 0
KWE1 101829Z 19015KT 20/04 A297 RMK A01 T01990035  RH  034%=      5-min Rain = 0
KWE1 101830Z 19017KT 20/04 A297 RMK A01 T02000037  RH  034%=      5-min Rain = 0
KWE1 101831Z 19017KT 20/04 A2969 RMK A01 T02020037  RH  033%=      5-min Rain = 0
KWE1 101832Z 19019KT 20/04 A2969 RMK A01 T02020036  RH  033%=      5-min Rain = 0
KWE1 101833Z 17015KT 20/04 A2969 RMK A01 T02030037  RH  033%=      5-min Rain = 0
KWE1 101834Z 18017KT 20/04 A2969 RMK A01 T02030036  RH  033%=      5-min Rain = 0
KWE1 101835Z 19018KT 21/04 A2969 RMK A01 T02050038  RH  033%=      5-min Rain = 0
KWE1 101836Z 19018KT 21/04 A2969 RMK A01 T02060037  RH  033%=      5-min Rain = 0
KWE1 101837Z 18018KT 21/04 A2969 RMK A01 T02060038  RH  033%=      5-min Rain = 0
KWE1 101838Z 18019G24KT 21/04 A2969 RMK A01 T02070039  RH  033%=      5-min Rain = 0
KWE1 101839Z 19018KT 21/04 A2969 RMK A01 T02090038  RH  033%=      5-min Rain = 0
KWE1 101840Z 20016KT 21/04 A2969 RMK A01 T02080037  RH  032%=      5-min Rain = 0
KWE1 101841Z 20015KT 21/04 A2968 RMK A01 T02050035  RH  032%=      5-min Rain = 0
KWE1 101842Z 19017KT 20/03 A2968 RMK A01 T02010034  RH  033%=      5-min Rain = 0
KWE1 101843Z 19017KT 20/04 A2968 RMK A01 T02000035  RH  033%=      5-min Rain = 0
KWE1 101844Z 18016KT 20/04 A2968 RMK A01 T02000035  RH  033%=      5-min Rain = 0
KWE1 101845Z 19018KT 20/03 A2968 RMK A01 T01980033  RH  034%=      5-min Rain = 0
KWE1 101846Z 19015KT 20/03 A2968 RMK A01 T01970034  RH  034%=      5-min Rain = 0
KWE1 101847Z 19014KT 20/03 A2968 RMK A01 T01960034  RH  034%=      5-min Rain = 0
KWE1 101848Z 19016KT 20/04 A2968 RMK A01 T01970035  RH  034%=      5-min Rain = 0
KWE1 101849Z 18017KT 20/04 A2968 RMK A01 T01980036  RH  034%=      5-min Rain = 0
KWE1 101850Z 19014KT 20/04 A2967 RMK A01 T02000036  RH  034%=      5-min Rain = 0
KWE1 101851Z 21015KT 20/04 A2967 RMK A01 T02010036  RH  034%=      5-min Rain = 0
KWE1 101852Z 20014KT 20/04 A2967 RMK A01 T02020035  RH  033%=      5-min Rain = 0
KWE1 101853Z 20013KT 20/04 A2967 RMK A01 T02020036  RH  033%=      5-min Rain = 0
KWE1 101854Z 19014KT 20/04 A2967 RMK A01 T02020036  RH  033%=      5-min Rain = 0
KWE1 101855Z 20013KT 21/04 A2967 RMK A01 T02050038  RH  033%=      5-min Rain = 0
KWE1 101856Z 20014KT 21/04 A2967 RMK A01 T02080038  RH  033%=      5-min Rain = 0
KWE1 101857Z 20014KT 21/04 A2966 RMK A01 T02100038  RH  032%=      5-min Rain = 0
KWE1 101858Z 21015KT 21/04 A2966 RMK A01 T02110037  RH  032%=      5-min Rain = 0
KWE1 101859Z 21015KT 21/04 A2966 RMK A01 T02110037  RH  032%=      5-min Rain = 0
KWE1 101900Z 19013KT 21/04 A2966 RMK A01 T02100038  RH  032%=      5-min Rain = 0
KWE1 101901Z 20012KT 21/04 A2966 RMK A01 T02110039  RH  032%=      5-min Rain = 0
KWE1 101902Z 18015KT 21/04 A2966 RMK A01 T02120038  RH  032%=      5-min Rain = 0
KWE1 101903Z 19013KT 21/04 A2966 RMK A01 T02120039  RH  032%=      5-min Rain = 0
KWE1 101904Z 18014KT 21/04 A2966 RMK A01 T02130040  RH  032%=      5-min Rain = 0
KWE1 101905Z 18016KT 22/04 A2966 RMK A01 T02150041  RH  032%=      5-min Rain = 0
KWE1 101906Z 19015KT 22/04 A2966 RMK A01 T02160040  RH  031%=      5-min Rain = 0
KWE1 101907Z 19013KT 22/04 A2966 RMK A01 T02150039  RH  032%=      5-min Rain = 0
KWE1 101908Z 19016KT 21/04 A2966 RMK A01 T02140040  RH  032%=      5-min Rain = 0
KWE1 101909Z 19016KT 22/04 A2965 RMK A01 T02150039  RH  031%=      5-min Rain = 0
KWE1 101910Z 19013KT 21/04 A2965 RMK A01 T02140037  RH  031%=      5-min Rain = 0
KWE1 101911Z 20016KT 21/04 A2965 RMK A01 T02140038  RH  032%=      5-min Rain = 0
KWE1 101912Z 19016KT 22/04 A2965 RMK A01 T02150038  RH  031%=      5-min Rain = 0
KWE1 101913Z 18018KT 22/04 A2965 RMK A01 T02150039  RH  031%=      5-min Rain = 0
KWE1 101914Z 19015KT 22/04 A2965 RMK A01 T02170039  RH  031%=      5-min Rain = 0
KWE1 101915Z 19015KT 22/04 A2964 RMK A01 T02180039  RH  031%=      5-min Rain = 0
KWE1 101916Z 19015KT 22/04 A2964 RMK A01 T02180038  RH  031%=      5-min Rain = 0
KWE1 101917Z 19017KT 22/04 A2964 RMK A01 T02170040  RH  031%=      5-min Rain = 0
KWE1 101918Z 18017KT 22/04 A2964 RMK A01 T02190040  RH  031%=      5-min Rain = 0
KWE1 101919Z 18017KT 22/04 A2964 RMK A01 T02190038  RH  031%=      5-min Rain = 0
KWE1 101920Z 18018KT 22/04 A2964 RMK A01 T02180039  RH  031%=      5-min Rain = 0
KWE1 101921Z 18019KT 22/04 A2964 RMK A01 T02180039  RH  031%=      5-min Rain = 0
KWE1 101922Z 18019KT 22/04 A2964 RMK A01 T02190039  RH  031%=      5-min Rain = 0
KWE1 101923Z 18019KT 22/04 A2963 RMK A01 T02190039  RH  031%=      5-min Rain = 0
KWE1 101924Z 19016KT 22/04 A2963 RMK A01 T02190038  RH  030%=      5-min Rain = 0
KWE1 101925Z 20015KT 22/04 A2963 RMK A01 T02190040  RH  031%=      5-min Rain = 0
KWE1 101926Z 19016KT 22/04 A2963 RMK A01 T02210039  RH  031%=      5-min Rain = 0
KWE1 101927Z 19017KT 22/04 A2963 RMK A01 T02220039  RH  030%=      5-min Rain = 0
KWE1 101928Z 19017KT 22/04 A2963 RMK A01 T02230041  RH  030%=      5-min Rain = 0
KWE1 101929Z 19018KT 23/04 A2963 RMK A01 T02260040  RH  030%=      5-min Rain = 0
KWE1 101930Z 20017KT 23/04 A2963 RMK A01 T02260040  RH  030%=      5-min Rain = 0
KWE1 101931Z 19017KT 23/04 A2963 RMK A01 T02250039  RH  030%=      5-min Rain = 0
KWE1 101932Z 18019KT 22/04 A2963 RMK A01 T02240039  RH  030%=      5-min Rain = 0
KWE1 101933Z 19022KT 22/04 A2963 RMK A01 T02240039  RH  030%=      5-min Rain = 0
KWE1 101934Z 19021KT 22/04 A2963 RMK A01 T02240039  RH  030%=      5-min Rain = 0
KWE1 101935Z 19018KT 22/04 A2963 RMK A01 T02240038  RH  030%=      5-min Rain = 0
KWE1 101936Z 19020KT 22/04 A2963 RMK A01 T02230038  RH  030%=      5-min Rain = 0
KWE1 101937Z 20020KT 22/04 A2963 RMK A01 T02230038  RH  030%=      5-min Rain = 0
KWE1 101938Z 21018G24KT 22/04 A2963 RMK A01 T02230039  RH  030%=      5-min Rain = 0
KWE1 101939Z 20016KT 22/04 A2963 RMK A01 T02220038  RH  030%=      5-min Rain = 0
KWE1 101940Z 20015KT 22/04 A2963 RMK A01 T02230039  RH  030%=      5-min Rain = 0
KWE1 101941Z 19017KT 22/04 A2963 RMK A01 T02240039  RH  030%=      5-min Rain = 0
KWE1 101942Z 19016KT 22/04 A2963 RMK A01 T02240039  RH  030%=      5-min Rain = 0
KWE1 101943Z 19019KT 23/04 A2962 RMK A01 T02250040  RH  030%=      5-min Rain = 0
KWE1 101944Z 19020KT 23/04 A2962 RMK A01 T02270040  RH  029%=      5-min Rain = 0
KWE1 101945Z 19019KT 23/04 A2962 RMK A01 T02270039  RH  029%=      5-min Rain = 0
KWE1 101946Z 19016KT 23/04 A2962 RMK A01 T02270040  RH  030%=      5-min Rain = 0
KWE1 101947Z 20018KT 23/04 A2962 RMK A01 T02290041  RH  029%=      5-min Rain = 0
KWE1 101948Z 20018G23KT 23/04 A2961 RMK A01 T02280040  RH  029%=      5-min Rain = 0
KWE1 101949Z 19020G25KT 23/04 A2961 RMK A01 T02280041  RH  029%=      5-min Rain = 0
KWE1 101950Z 18022KT 23/04 A2961 RMK A01 T02300041  RH  029%=      5-min Rain = 0
KWE1 101951Z 19018KT 23/04 A2961 RMK A01 T02300040  RH  029%=      5-min Rain = 0
KWE1 101952Z 19017KT 23/04 A2961 RMK A01 T02290039  RH  029%=      5-min Rain = 0
KWE1 101953Z 19019KT 23/04 A2961 RMK A01 T02280040  RH  029%=      5-min Rain = 0
KWE1 101954Z 19021KT 23/04 A2961 RMK A01 T02270039  RH  029%=      5-min Rain = 0
KWE1 101955Z 19020KT 23/04 A2961 RMK A01 T02260039  RH  030%=      5-min Rain = 0
KWE1 101956Z 19019KT 23/04 A2961 RMK A01 T02260040  RH  030%=      5-min Rain = 0
KWE1 101957Z 19020KT 23/04 A2961 RMK A01 T02280041  RH  030%=      5-min Rain = 0
KWE1 101958Z 20017KT 23/04 A2961 RMK A01 T02290040  RH  029%=      5-min Rain = 0
KWE1 101959Z 19017KT 23/04 A2961 RMK A01 T02290041  RH  029%=      5-min Rain = 0
KWE1 102000Z 19018KT 23/04 A2961 RMK A01 T02300041  RH  029%=      5-min Rain = 0
KWE1 102001Z 19017KT 23/04 A2961 RMK A01 T02270039  RH  029%=      5-min Rain = 0
KWE1 102002Z 20016G21KT 23/04 A2961 RMK A01 T02270040  RH  030%=      5-min Rain = 0
KWE1 102003Z 19015KT 23/04 A296 RMK A01 T02270040  RH  029%=      5-min Rain = 0
KWE1 102004Z 19017KT 23/04 A296 RMK A01 T02260041  RH  030%=      5-min Rain = 0
KWE1 102005Z 19017KT 23/04 A296 RMK A01 T02270042  RH  030%=      5-min Rain = 0
KWE1 102006Z 19017KT 23/04 A296 RMK A01 T02290042  RH  030%=      5-min Rain = 0
KWE1 102007Z 17021KT 23/04 A296 RMK A01 T02290042  RH  030%=      5-min Rain = 0
KWE1 102008Z 18020KT 23/04 A296 RMK A01 T02280042  RH  030%=      5-min Rain = 0
KWE1 102009Z 18021KT 23/04 A296 RMK A01 T02280042  RH  030%=      5-min Rain = 0
KWE1 102010Z 18016KT 23/04 A296 RMK A01 T02280042  RH  030%=      5-min Rain = 0
KWE1 102011Z 19016G21KT 23/05 A296 RMK A01 T02300045  RH  030%=      5-min Rain = 0
KWE1 102012Z 18019G24KT 23/04 A296 RMK A01 T02330044  RH  029%=      5-min Rain = 0
KWE1 102013Z 18019KT 23/04 A296 RMK A01 T02320042  RH  029%=      5-min Rain = 0
KWE1 102014Z 19017KT 23/04 A296 RMK A01 T02280041  RH  030%=      5-min Rain = 0
KWE1 102015Z 18017KT 23/04 A296 RMK A01 T02270042  RH  030%=      5-min Rain = 0
KWE1 102016Z 17016KT 23/04 A296 RMK A01 T02280042  RH  030%=      5-min Rain = 0
KWE1 102017Z 17019KT 23/04 A296 RMK A01 T02280043  RH  030%=      5-min Rain = 0
KWE1 102018Z 18017KT 23/04 A296 RMK A01 T02290043  RH  030%=      5-min Rain = 0
KWE1 102019Z 19017KT 23/04 A296 RMK A01 T02290043  RH  030%=      5-min Rain = 0
KWE1 102020Z 20018KT 23/04 A296 RMK A01 T02280043  RH  030%=      5-min Rain = 0
KWE1 102021Z 19017KT 23/04 A296 RMK A01 T02270043  RH  030%=      5-min Rain = 0
KWE1 102022Z 19020KT 23/04 A2959 RMK A01 T02280043  RH  030%=      5-min Rain = 0
KWE1 102023Z 19017KT 23/04 A2959 RMK A01 T02280043  RH  030%=      5-min Rain = 0
KWE1 102024Z 19017KT 23/04 A2959 RMK A01 T02280043  RH  030%=      5-min Rain = 0
KWE1 102025Z 18014G19KT 23/04 A2959 RMK A01 T02280043  RH  030%=      5-min Rain = 0
KWE1 102026Z 18020KT 23/04 A2959 RMK A01 T02290043  RH  030%=      5-min Rain = 0
KWE1 102027Z 20021KT 23/04 A2959 RMK A01 T02290043  RH  030%=      5-min Rain = 0
KWE1 102028Z 20019G24KT 23/04 A2959 RMK A01 T02290043  RH  030%=      5-min Rain = 0
KWE1 102029Z 19022KT 23/04 A2959 RMK A01 T02310044  RH  030%=      5-min Rain = 0
KWE1 102030Z 18018KT 23/04 A2959 RMK A01 T02330044  RH  029%=      5-min Rain = 0
KWE1 102031Z 18021KT 23/04 A2959 RMK A01 T02340044  RH  029%=      5-min Rain = 0
KWE1 102032Z 19021G26KT 23/04 A2958 RMK A01 T02340044  RH  029%=      5-min Rain = 0
KWE1 102033Z 19021KT 23/04 A2958 RMK A01 T02340043  RH  029%=      5-min Rain = 0
KWE1 102034Z 18019KT 23/04 A2958 RMK A01 T02330043  RH  029%=      5-min Rain = 0
KWE1 102035Z 18023KT 23/04 A2958 RMK A01 T02340043  RH  029%=      5-min Rain = 0
KWE1 102036Z 18020G25KT 23/04 A2958 RMK A01 T02330043  RH  029%=      5-min Rain = 0
KWE1 102037Z 18021KT 23/04 A2958 RMK A01 T02320042  RH  029%=      5-min Rain = 0
KWE1 102038Z 18024G29KT 23/04 A2958 RMK A01 T02310042  RH  029%=      5-min Rain = 0
KWE1 102039Z 19017KT 23/04 A2958 RMK A01 T02320044  RH  029%=      5-min Rain = 0
KWE1 102040Z 18018KT 24/05 A2958 RMK A01 T02360045  RH  029%=      5-min Rain = 0
KWE1 102041Z 20017KT 24/04 A2957 RMK A01 T02370044  RH  029%=      5-min Rain = 0
KWE1 102042Z 19019KT 24/04 A2957 RMK A01 T02360043  RH  029%=      5-min Rain = 0
KWE1 102043Z 19021KT 24/04 A2957 RMK A01 T02350044  RH  029%=      5-min Rain = 0
KWE1 102044Z 18018KT 24/04 A2957 RMK A01 T02350043  RH  029%=      5-min Rain = 0
KWE1 102045Z 18020KT 23/04 A2957 RMK A01 T02340044  RH  029%=      5-min Rain = 0
KWE1 102046Z 18018G23KT 23/04 A2957 RMK A01 T02340043  RH  029%=      5-min Rain = 0
KWE1 102047Z 18016KT 23/04 A2957 RMK A01 T02330043  RH  029%=      5-min Rain = 0
KWE1 102048Z 18015KT 23/04 A2957 RMK A01 T02330043  RH  029%=      5-min Rain = 0
KWE1 102049Z 18016KT 24/04 A2957 RMK A01 T02350044  RH  029%=      5-min Rain = 0
KWE1 102050Z 18018KT 24/05 A2957 RMK A01 T02370045  RH  029%=      5-min Rain = 0
KWE1 102051Z 19017KT 24/05 A2956 RMK A01 T02390045  RH  028%=      5-min Rain = 0
KWE1 102052Z 18017KT 24/04 A2956 RMK A01 T02390044  RH  028%=      5-min Rain = 0
KWE1 102053Z 17019KT 24/04 A2956 RMK A01 T02390044  RH  028%=      5-min Rain = 0
KWE1 102054Z 17020KT 24/04 A2956 RMK A01 T02370043  RH  028%=      5-min Rain = 0
KWE1 102055Z 17016G21KT 24/04 A2956 RMK A01 T02360044  RH  029%=      5-min Rain = 0
KWE1 102056Z 18015KT 24/05 A2956 RMK A01 T02370045  RH  029%=      5-min Rain = 0
KWE1 102057Z 17012KT 24/05 A2956 RMK A01 T02380046  RH  029%=      5-min Rain = 0
KWE1 102058Z 18018KT 24/05 A2956 RMK A01 T02400046  RH  028%=      5-min Rain = 0
KWE1 102059Z 18021KT 24/05 A2956 RMK A01 T02400047  RH  028%=      5-min Rain = 0
KWE1 102100Z 17018KT 24/05 A2956 RMK A01 T02390045  RH  028%=      5-min Rain = 0
KWE1 102101Z 17017KT 24/05 A2956 RMK A01 T02390046  RH  029%=      5-min Rain = 0
KWE1 102102Z 17019G25KT 24/05 A2956 RMK A01 T02390046  RH  029%=      5-min Rain = 0
KWE1 102103Z 18017KT 24/05 A2956 RMK A01 T02390046  RH  029%=      5-min Rain = 0
KWE1 102104Z 18018KT 24/05 A2956 RMK A01 T02390045  RH  028%=      5-min Rain = 0
KWE1 102105Z 17018KT 24/05 A2956 RMK A01 T02390045  RH  028%=      5-min Rain = 0
KWE1 102106Z 18018G25KT 24/05 A2955 RMK A01 T02380045  RH  029%=      5-min Rain = 0
KWE1 102107Z 19020KT 24/05 A2956 RMK A01 T02390045  RH  028%=      5-min Rain = 0
KWE1 102108Z 18020KT 24/04 A2955 RMK A01 T02390044  RH  028%=      5-min Rain = 0
KWE1 102109Z 18023KT 24/04 A2955 RMK A01 T02380044  RH  028%=      5-min Rain = 0
KWE1 102110Z 19020KT 24/04 A2955 RMK A01 T02390044  RH  028%=      5-min Rain = 0
KWE1 102111Z 19015KT 24/04 A2955 RMK A01 T02390043  RH  028%=      5-min Rain = 0
KWE1 102112Z 19015KT 24/04 A2955 RMK A01 T02400044  RH  028%=      5-min Rain = 0
KWE1 102113Z 18018G24KT 24/05 A2956 RMK A01 T02420046  RH  028%=      5-min Rain = 0
KWE1 102114Z 18023KT 24/05 A2955 RMK A01 T02430045  RH  028%=      5-min Rain = 0
KWE1 102115Z 19020G25KT 24/04 A2956 RMK A01 T02420044  RH  028%=      5-min Rain = 0
KWE1 102116Z 18021KT 24/04 A2955 RMK A01 T02410044  RH  028%=      5-min Rain = 0
KWE1 102117Z 18021KT 24/04 A2956 RMK A01 T02410044  RH  028%=      5-min Rain = 0
KWE1 102118Z 18021G27KT 24/04 A2955 RMK A01 T02400044  RH  028%=      5-min Rain = 0
KWE1 102119Z 18022KT 24/04 A2956 RMK A01 T02390044  RH  028%=      5-min Rain = 0
KWE1 102120Z 18020KT 24/04 A2955 RMK A01 T02390044  RH  028%=      5-min Rain = 0
KWE1 102121Z 18019KT 24/04 A2956 RMK A01 T02390044  RH  028%=      5-min Rain = 0
KWE1 102122Z 18020KT 24/04 A2956 RMK A01 T02400044  RH  028%=      5-min Rain = 0
KWE1 102123Z 19021KT 24/04 A2956 RMK A01 T02390044  RH  028%=      5-min Rain = 0
KWE1 102124Z 18023KT 24/04 A2955 RMK A01 T02390044  RH  028%=      5-min Rain = 0
KWE1 102125Z 18024KT 24/04 A2955 RMK A01 T02390044  RH  028%=      5-min Rain = 0
KWE1 102126Z 20019KT 24/04 A2956 RMK A01 T02390044  RH  028%=      5-min Rain = 0
KWE1 102127Z 19018KT 24/04 A2956 RMK A01 T02390044  RH  028%=      5-min Rain = 0
KWE1 102128Z 19018KT 24/04 A2956 RMK A01 T02390044  RH  028%=      5-min Rain = 0
KWE1 102129Z 19020KT 24/04 A2956 RMK A01 T02400044  RH  028%=      5-min Rain = 0
KWE1 102130Z 19019KT 24/05 A2956 RMK A01 T02420045  RH  028%=      5-min Rain = 0
KWE1 102131Z 19018KT 24/04 A2956 RMK A01 T02410044  RH  028%=      5-min Rain = 0
KWE1 102132Z 19017KT 24/04 A2956 RMK A01 T02400044  RH  028%=      5-min Rain = 0
KWE1 102133Z 19018KT 24/04 A2956 RMK A01 T02400044  RH  028%=      5-min Rain = 0
KWE1 102134Z 19017G22KT 24/04 A2956 RMK A01 T02400044  RH  028%=      5-min Rain = 0
KWE1 102135Z 19019G24KT 24/04 A2956 RMK A01 T02400044  RH  028%=      5-min Rain = 0
KWE1 102136Z 20021KT 24/04 A2956 RMK A01 T02400044  RH  028%=      5-min Rain = 0
KWE1 102137Z 19020KT 24/04 A2956 RMK A01 T02400044  RH  028%=      5-min Rain = 0
KWE1 102138Z 20021KT 24/04 A2956 RMK A01 T02400044  RH  028%=      5-min Rain = 0
KWE1 102139Z 20020KT 24/04 A2956 RMK A01 T02390043  RH  028%=      5-min Rain = 0
KWE1 102140Z 19016KT 24/04 A2956 RMK A01 T02380043  RH  028%=      5-min Rain = 0
KWE1 102141Z 19015KT 24/04 A2956 RMK A01 T02370043  RH  028%=      5-min Rain = 0
KWE1 102142Z 18019KT 24/05 A2956 RMK A01 T02400045  RH  028%=      5-min Rain = 0
KWE1 102143Z 18017KT 24/05 A2956 RMK A01 T02400046  RH  028%=      5-min Rain = 0
KWE1 102144Z 19017KT 24/05 A2956 RMK A01 T02410046  RH  028%=      5-min Rain = 0
KWE1 102145Z 19016KT 24/05 A2956 RMK A01 T02410045  RH  028%=      5-min Rain = 0
KWE1 102146Z 19019G25KT 24/05 A2956 RMK A01 T02410045  RH  028%=      5-min Rain = 0
KWE1 102147Z 19019KT 24/04 A2956 RMK A01 T02400044  RH  028%=      5-min Rain = 0
KWE1 102148Z 18021KT 24/05 A2956 RMK A01 T02400045  RH  028%=      5-min Rain = 0
KWE1 102149Z 19021G26KT 24/04 A2955 RMK A01 T02390044  RH  028%=      5-min Rain = 0
KWE1 102150Z 19020KT 24/05 A2955 RMK A01 T02390045  RH  028%=      5-min Rain = 0
KWE1 102151Z 19018KT 24/05 A2955 RMK A01 T02380045  RH  028%=      5-min Rain = 0
KWE1 102152Z 18019G24KT 24/05 A2956 RMK A01 T02390046  RH  029%=      5-min Rain = 0
KWE1 102153Z 19018KT 24/05 A2956 RMK A01 T02390045  RH  028%=      5-min Rain = 0
KWE1 102154Z 19017KT 24/05 A2956 RMK A01 T02400045  RH  028%=      5-min Rain = 0
KWE1 102155Z 17015KT 24/05 A2955 RMK A01 T02400046  RH  028%=      5-min Rain = 0
KWE1 102156Z 18019KT 24/05 A2955 RMK A01 T02420046  RH  028%=      5-min Rain = 0
KWE1 102157Z 17020KT 24/05 A2955 RMK A01 T02400045  RH  028%=      5-min Rain = 0
KWE1 102158Z 17019KT 24/05 A2955 RMK A01 T02390045  RH  028%=      5-min Rain = 0
KWE1 102159Z 17019KT 24/05 A2955 RMK A01 T02390046  RH  029%=      5-min Rain = 0
KWE1 102200Z 17018KT 24/05 A2955 RMK A01 T02380046  RH  029%=      5-min Rain = 0
KWE1 102201Z 18015KT 24/05 A2956 RMK A01 T02370046  RH  029%=      5-min Rain = 0
KWE1 102202Z 18018KT 24/05 A2956 RMK A01 T02380046  RH  029%=      5-min Rain = 0
KWE1 102203Z 18016KT 24/05 A2956 RMK A01 T02380046  RH  029%=      5-min Rain = 0
KWE1 102204Z 17017KT 24/05 A2956 RMK A01 T02380046  RH  029%=      5-min Rain = 0
KWE1 102205Z 18018KT 24/05 A2956 RMK A01 T02390046  RH  029%=      5-min Rain = 0
KWE1 102206Z 17018KT 24/05 A2956 RMK A01 T02390046  RH  029%=      5-min Rain = 0
KWE1 102207Z 17018KT 24/05 A2956 RMK A01 T02380046  RH  029%=      5-min Rain = 0
KWE1 102208Z 18020KT 24/05 A2956 RMK A01 T02360046  RH  029%=      5-min Rain = 0
KWE1 102209Z 18015KT 24/05 A2956 RMK A01 T02360046  RH  029%=      5-min Rain = 0
KWE1 102210Z 18017KT 24/05 A2956 RMK A01 T02360046  RH  029%=      5-min Rain = 0
KWE1 102211Z 18016KT 24/05 A2956 RMK A01 T02370046  RH  029%=      5-min Rain = 0
KWE1 102212Z 17016KT 24/05 A2955 RMK A01 T02360047  RH  029%=      5-min Rain = 0
KWE1 102213Z 17020KT 24/05 A2955 RMK A01 T02370047  RH  029%=      5-min Rain = 0
KWE1 102214Z 18017KT 24/05 A2955 RMK A01 T02360046  RH  029%=      5-min Rain = 0
KWE1 102215Z 18018KT 24/05 A2955 RMK A01 T02360046  RH  029%=      5-min Rain = 0
KWE1 102216Z 17017KT 24/05 A2955 RMK A01 T02360047  RH  029%=      5-min Rain = 0
KWE1 102217Z 17019KT 24/05 A2955 RMK A01 T02360047  RH  029%=      5-min Rain = 0
KWE1 102218Z 17019KT 24/05 A2955 RMK A01 T02360046  RH  029%=      5-min Rain = 0
KWE1 102219Z 18019KT 24/05 A2955 RMK A01 T02360047  RH  029%=      5-min Rain = 0
KWE1 102220Z 18019KT 24/05 A2955 RMK A01 T02350046  RH  029%=      5-min Rain = 0
KWE1 102221Z 18018KT 24/05 A2955 RMK A01 T02360046  RH  029%=      5-min Rain = 0
KWE1 102222Z 18018KT 24/05 A2955 RMK A01 T02360046  RH  029%=      5-min Rain = 0
KWE1 102223Z 18018KT 24/05 A2955 RMK A01 T02360046  RH  029%=      5-min Rain = 0
KWE1 102224Z 18018KT 24/05 A2955 RMK A01 T02360046  RH  029%=      5-min Rain = 0
KWE1 102225Z 18020KT 24/05 A2955 RMK A01 T02360046  RH  029%=      5-min Rain = 0
KWE1 102226Z 17020KT 24/05 A2955 RMK A01 T02360046  RH  029%=      5-min Rain = 0
KWE1 102227Z 18020G25KT 24/05 A2955 RMK A01 T02360046  RH  029%=      5-min Rain = 0
KWE1 102228Z 17021KT 24/05 A2955 RMK A01 T02350046  RH  029%=      5-min Rain = 0
KWE1 102229Z 17021KT 24/05 A2955 RMK A01 T02350045  RH  029%=      5-min Rain = 0
KWE1 102230Z 17018KT 24/05 A2955 RMK A01 T02350045  RH  029%=      5-min Rain = 0
KWE1 102231Z 18017KT 23/05 A2955 RMK A01 T02340045  RH  029%=      5-min Rain = 0
KWE1 102232Z 17018KT 24/05 A2955 RMK A01 T02350045  RH  029%=      5-min Rain = 0
KWE1 102233Z 17018KT 24/05 A2955 RMK A01 T02350045  RH  029%=      5-min Rain = 0
KWE1 102234Z 18018KT 23/05 A2955 RMK A01 T02340045  RH  029%=      5-min Rain = 0
KWE1 102235Z 16019KT 24/05 A2955 RMK A01 T02350046  RH  029%=      5-min Rain = 0
KWE1 102236Z 17018KT 23/05 A2955 RMK A01 T02340045  RH  029%=      5-min Rain = 0
KWE1 102237Z 17018KT 23/05 A2955 RMK A01 T02340045  RH  029%=      5-min Rain = 0
KWE1 102238Z 16019KT 23/05 A2955 RMK A01 T02330045  RH  029%=      5-min Rain = 0
KWE1 102239Z 17018KT 23/05 A2954 RMK A01 T02330045  RH  029%=      5-min Rain = 0
KWE1 102240Z 17021KT 23/05 A2954 RMK A01 T02330045  RH  029%=      5-min Rain = 0
KWE1 102241Z 17019KT 23/04 A2954 RMK A01 T02330044  RH  029%=      5-min Rain = 0
KWE1 102242Z 17019KT 23/04 A2954 RMK A01 T02320044  RH  029%=      5-min Rain = 0
KWE1 102243Z 16016KT 23/04 A2954 RMK A01 T02320044  RH  029%=      5-min Rain = 0
KWE1 102244Z 16017KT 23/04 A2954 RMK A01 T02320044  RH  029%=      5-min Rain = 0
KWE1 102245Z 16017KT 23/04 A2954 RMK A01 T02320044  RH  029%=      5-min Rain = 0
KWE1 102246Z 16015KT 23/04 A2954 RMK A01 T02320044  RH  029%=      5-min Rain = 0
KWE1 102247Z 17016KT 23/04 A2954 RMK A01 T02320044  RH  029%=      5-min Rain = 0
KWE1 102248Z 17016KT 23/04 A2954 RMK A01 T02320044  RH  029%=      5-min Rain = 0
KWE1 102249Z 17016KT 23/04 A2954 RMK A01 T02320044  RH  029%=      5-min Rain = 0
KWE1 102250Z 17015KT 23/04 A2954 RMK A01 T02320044  RH  029%=      5-min Rain = 0
KWE1 102251Z 17015KT 23/04 A2954 RMK A01 T02320044  RH  029%=      5-min Rain = 0
KWE1 102252Z 17015KT 23/04 A2954 RMK A01 T02320044  RH  029%=      5-min Rain = 0
KWE1 102253Z 17017KT 23/04 A2954 RMK A01 T02320044  RH  029%=      5-min Rain = 0
KWE1 102254Z 17017KT 23/04 A2954 RMK A01 T02310044  RH  029%=      5-min Rain = 0
KWE1 102255Z 17017KT 23/04 A2954 RMK A01 T02310044  RH  029%=      5-min Rain = 0
KWE1 102256Z 17019KT 23/04 A2954 RMK A01 T02310044  RH  029%=      5-min Rain = 0
KWE1 102257Z 17020KT 23/04 A2954 RMK A01 T02310043  RH  029%=      5-min Rain = 0
KWE1 102258Z 17019KT 23/04 A2954 RMK A01 T02310043  RH  029%=      5-min Rain = 0
KWE1 102259Z 18018KT 23/04 A2954 RMK A01 T02310043  RH  029%=      5-min Rain = 0
KWE1 102300Z 17019KT 23/04 A2954 RMK A01 T02310043  RH  029%=      5-min Rain = 0
KWE1 102301Z 18018KT 23/04 A2954 RMK A01 T02300043  RH  030%=      5-min Rain = 0
KWE1 102302Z 17019KT 23/04 A2954 RMK A01 T02300043  RH  030%=      5-min Rain = 0
KWE1 102303Z 18017KT 23/04 A2954 RMK A01 T02290042  RH  030%=      5-min Rain = 0
KWE1 102304Z 17015KT 23/04 A2954 RMK A01 T02290043  RH  030%=      5-min Rain = 0
KWE1 102305Z 17017KT 23/04 A2954 RMK A01 T02280043  RH  030%=      5-min Rain = 0
KWE1 102306Z 17014KT 23/04 A2954 RMK A01 T02280043  RH  030%=      5-min Rain = 0
KWE1 102307Z 17017KT 23/04 A2954 RMK A01 T02270043  RH  030%=      5-min Rain = 0
KWE1 102308Z 17014KT 23/04 A2954 RMK A01 T02270042  RH  030%=      5-min Rain = 0
KWE1 102309Z 17016KT 23/04 A2954 RMK A01 T02260043  RH  030%=      5-min Rain = 0
KWE1 102310Z 17015KT 23/04 A2954 RMK A01 T02250042  RH  030%=      5-min Rain = 0
KWE1 102311Z 17017G22KT 23/04 A2954 RMK A01 T02250042  RH  030%=      5-min Rain = 0
KWE1 102312Z 17017KT 22/04 A2954 RMK A01 T02240042  RH  030%=      5-min Rain = 0
KWE1 102313Z 18018KT 22/04 A2954 RMK A01 T02240042  RH  031%=      5-min Rain = 0
KWE1 102314Z 18019KT 22/04 A2954 RMK A01 T02240042  RH  031%=      5-min Rain = 0
KWE1 102315Z 18018KT 22/04 A2954 RMK A01 T02230042  RH  031%=      5-min Rain = 0
KWE1 102316Z 17018KT 22/04 A2954 RMK A01 T02230042  RH  031%=      5-min Rain = 0
KWE1 102317Z 17014KT 22/04 A2954 RMK A01 T02220042  RH  031%=      5-min Rain = 0
KWE1 102318Z 17015KT 22/04 A2954 RMK A01 T02210041  RH  031%=      5-min Rain = 0
KWE1 102319Z 17018G23KT 22/04 A2954 RMK A01 T02200041  RH  031%=      5-min Rain = 0
KWE1 102320Z 17018KT 22/04 A2954 RMK A01 T02200043  RH  031%=      5-min Rain = 0
KWE1 102321Z 17019KT 22/04 A2954 RMK A01 T02200042  RH  031%=      5-min Rain = 0
KWE1 102322Z 17018KT 22/04 A2954 RMK A01 T02190042  RH  032%=      5-min Rain = 0
KWE1 102323Z 17018KT 22/04 A2954 RMK A01 T02180042  RH  032%=      5-min Rain = 0
KWE1 102324Z 17015KT 22/04 A2954 RMK A01 T02170042  RH  032%=      5-min Rain = 0
KWE1 102325Z 17018KT 22/04 A2954 RMK A01 T02170042  RH  032%=      5-min Rain = 0
KWE1 102326Z 17016KT 22/04 A2954 RMK A01 T02160042  RH  032%=      5-min Rain = 0
KWE1 102327Z 17018KT 22/04 A2954 RMK A01 T02150042  RH  032%=      5-min Rain = 0
KWE1 102328Z 17017KT 22/04 A2954 RMK A01 T02150042  RH  032%=      5-min Rain = 0
KWE1 102329Z 17021KT 21/04 A2954 RMK A01 T02140042  RH  032%=      5-min Rain = 0
KWE1 102330Z 17018KT 22/04 A2954 RMK A01 T02150043  RH  032%=      5-min Rain = 0
KWE1 102331Z 17019KT 21/04 A2954 RMK A01 T02140042  RH  032%=      5-min Rain = 0
KWE1 102332Z 17017KT 21/04 A2954 RMK A01 T02140042  RH  032%=      5-min Rain = 0
KWE1 102333Z 17019KT 21/04 A2954 RMK A01 T02130042  RH  033%=      5-min Rain = 0
KWE1 102334Z 16015KT 21/04 A2954 RMK A01 T02130042  RH  033%=      5-min Rain = 0
KWE1 102335Z 17015KT 21/04 A2954 RMK A01 T02120042  RH  033%=      5-min Rain = 0
KWE1 102336Z 17017KT 21/04 A2954 RMK A01 T02110042  RH  033%=      5-min Rain = 0
KWE1 102337Z 16016KT 21/04 A2954 RMK A01 T02110042  RH  033%=      5-min Rain = 0
KWE1 102338Z 17017KT 21/04 A2954 RMK A01 T02110042  RH  033%=      5-min Rain = 0
KWE1 102339Z 17017KT 21/04 A2954 RMK A01 T02100042  RH  033%=      5-min Rain = 0
KWE1 102340Z 17017KT 21/04 A2954 RMK A01 T02100042  RH  033%=      5-min Rain = 0
KWE1 102341Z 16018KT 21/04 A2954 RMK A01 T02100042  RH  033%=      5-min Rain = 0
KWE1 102342Z 17018KT 21/04 A2953 RMK A01 T02100042  RH  033%=      5-min Rain = 0
KWE1 102343Z 17019KT 21/04 A2953 RMK A01 T02100042  RH  033%=      5-min Rain = 0
KWE1 102344Z 16016KT 21/04 A2953 RMK A01 T02110043  RH  033%=      5-min Rain = 0
KWE1 102345Z 17016KT 21/04 A2953 RMK A01 T02100042  RH  033%=      5-min Rain = 0
KWE1 102346Z 16016KT 21/04 A2953 RMK A01 T02100042  RH  033%=      5-min Rain = 0
KWE1 102347Z 16018KT 21/04 A2953 RMK A01 T02090042  RH  033%=      5-min Rain = 0
KWE1 102348Z 16014KT 21/04 A2953 RMK A01 T02090042  RH  033%=      5-min Rain = 0
KWE1 102349Z 16014KT 21/04 A2953 RMK A01 T02080041  RH  033%=      5-min Rain = 0
KWE1 102350Z 16015KT 21/04 A2953 RMK A01 T02070042  RH  034%=      5-min Rain = 0
KWE1 102351Z 16015KT 21/04 A2953 RMK A01 T02060041  RH  034%=      5-min Rain = 0
KWE1 102352Z 16016KT 21/04 A2953 RMK A01 T02050041  RH  034%=      5-min Rain = 0
KWE1 102353Z 16017KT 21/04 A2953 RMK A01 T02050042  RH  034%=      5-min Rain = 0
KWE1 102354Z 16016KT 21/04 A2953 RMK A01 T02050042  RH  034%=      5-min Rain = 0
KWE1 102355Z 16016KT 21/04 A2953 RMK A01 T02050042  RH  034%=      5-min Rain = 0
KWE1 102356Z 16016KT 20/04 A2953 RMK A01 T02040041  RH  034%=      5-min Rain = 0
KWE1 102357Z 16016KT 20/04 A2953 RMK A01 T02030041  RH  034%=      5-min Rain = 0
KWE1 102358Z 16017KT 20/04 A2953 RMK A01 T02030041  RH  034%=      5-min Rain = 0
KWE1 102359Z 16016KT 20/04 A2953 RMK A01 T02030041  RH  035%=      5-min Rain = 0
KWE1 110000Z 16016KT 20/04 A2953 RMK A01 T02030041  RH  035%=      5-min Rain = 0
KWE1 110001Z 16016KT 20/04 A2953 RMK A01 T02030041  RH  035%=      5-min Rain = 0
KWE1 110002Z 16015KT 20/04 A2953 RMK A01 T02020041  RH  035%=      5-min Rain = 0
KWE1 110003Z 16017KT 20/04 A2953 RMK A01 T02020041  RH  035%=      5-min Rain = 0
KWE1 110004Z 16016KT 20/04 A2953 RMK A01 T02020041  RH  035%=      5-min Rain = 0
KWE1 110005Z 16016KT 20/04 A2953 RMK A01 T02020040  RH  035%=      5-min Rain = 0
KWE1 110006Z 16016KT 20/04 A2953 RMK A01 T02020040  RH  035%=      5-min Rain = 0
KWE1 110007Z 15013KT 20/04 A2953 RMK A01 T02010040  RH  035%=      5-min Rain = 0
KWE1 110008Z 15012KT 20/04 A2953 RMK A01 T01990039  RH  035%=      5-min Rain = 0
KWE1 110009Z 15012KT 20/04 A2953 RMK A01 T01980039  RH  035%=      5-min Rain = 0
KWE1 110010Z 15013KT 20/04 A2953 RMK A01 T01960039  RH  036%=      5-min Rain = 0
KWE1 110011Z 14013KT 20/04 A2953 RMK A01 T01950040  RH  036%=      5-min Rain = 0
KWE1 110012Z 15013KT 19/04 A2953 RMK A01 T01940042  RH  037%=      5-min Rain = 0
KWE1 110013Z 14013KT 19/04 A2953 RMK A01 T01930044  RH  037%=      5-min Rain = 0
KWE1 110014Z 15012KT 19/04 A2953 RMK A01 T01920044  RH  038%=      5-min Rain = 0
KWE1 110015Z 15013KT 19/04 A2953 RMK A01 T01910044  RH  038%=      5-min Rain = 0
KWE1 110016Z 15014KT 19/05 A2953 RMK A01 T01900045  RH  038%=      5-min Rain = 0
KWE1 110017Z 15013KT 19/05 A2953 RMK A01 T01890045  RH  038%=      5-min Rain = 0
KWE1 110018Z 15014KT 19/05 A2953 RMK A01 T01890045  RH  039%=      5-min Rain = 0
KWE1 110019Z 15013KT 19/05 A2954 RMK A01 T01880046  RH  039%=      5-min Rain = 0
KWE1 110020Z 15013KT 19/05 A2954 RMK A01 T01870046  RH  039%=      5-min Rain = 0
KWE1 110021Z 15013KT 19/05 A2954 RMK A01 T01870047  RH  039%=      5-min Rain = 0
KWE1 110022Z 15014KT 19/05 A2954 RMK A01 T01870047  RH  040%=      5-min Rain = 0
KWE1 110023Z 15016KT 19/05 A2954 RMK A01 T01870048  RH  040%=      5-min Rain = 0
KWE1 110024Z 15014KT 19/05 A2954 RMK A01 T01870048  RH  040%=      5-min Rain = 0
KWE1 110025Z 15017KT 19/05 A2954 RMK A01 T01870049  RH  040%=      5-min Rain = 0
KWE1 110026Z 15016KT 19/05 A2954 RMK A01 T01870049  RH  040%=      5-min Rain = 0
KWE1 110027Z 15015KT 19/05 A2954 RMK A01 T01870050  RH  040%=      5-min Rain = 0
KWE1 110028Z 15016KT 19/05 A2954 RMK A01 T01870050  RH  040%=      5-min Rain = 0
KWE1 110029Z 15016KT 19/05 A2954 RMK A01 T01870050  RH  041%=      5-min Rain = 0
KWE1 110030Z 15016KT 19/05 A2954 RMK A01 T01870050  RH  041%=      5-min Rain = 0
KWE1 110031Z 15017KT 19/05 A2954 RMK A01 T01870051  RH  041%=      5-min Rain = 0
KWE1 110032Z 15017KT 19/05 A2954 RMK A01 T01870051  RH  041%=      5-min Rain = 0
KWE1 110033Z 15017KT 19/05 A2954 RMK A01 T01870052  RH  041%=      5-min Rain = 0
KWE1 110034Z 16017KT 19/05 A2954 RMK A01 T01870052  RH  041%=      5-min Rain = 0
KWE1 110035Z 16018KT 19/05 A2954 RMK A01 T01870052  RH  041%=      5-min Rain = 0
KWE1 110036Z 15016KT 19/05 A2954 RMK A01 T01870052  RH  041%=      5-min Rain = 0
KWE1 110037Z 15016KT 19/05 A2954 RMK A01 T01870052  RH  041%=      5-min Rain = 0
KWE1 110038Z 16017KT 19/05 A2954 RMK A01 T01870053  RH  041%=      5-min Rain = 0
KWE1 110039Z 15016KT 19/05 A2954 RMK A01 T01870053  RH  041%=      5-min Rain = 0
KWE1 110040Z 16018KT 19/05 A2954 RMK A01 T01870053  RH  041%=      5-min Rain = 0
KWE1 110041Z 16018KT 19/05 A2954 RMK A01 T01860053  RH  041%=      5-min Rain = 0
KWE1 110042Z 16018KT 19/05 A2954 RMK A01 T01860053  RH  041%=      5-min Rain = 0
KWE1 110043Z 16017KT 19/05 A2955 RMK A01 T01870053  RH  041%=      5-min Rain = 0
KWE1 110044Z 16016KT 19/05 A2955 RMK A01 T01870053  RH  041%=      5-min Rain = 0
KWE1 110045Z 16017KT 19/05 A2955 RMK A01 T01870054  RH  042%=      5-min Rain = 0
KWE1 110046Z 16016KT 19/05 A2955 RMK A01 T01860053  RH  042%=      5-min Rain = 0
KWE1 110047Z 16016KT 19/05 A2956 RMK A01 T01870054  RH  042%=      5-min Rain = 0
KWE1 110048Z 16016G21KT 19/05 A2956 RMK A01 T01870054  RH  042%=      5-min Rain = 0
KWE1 110049Z 16016KT 19/05 A2956 RMK A01 T01870054  RH  042%=      5-min Rain = 0
KWE1 110050Z 16016KT 19/05 A2956 RMK A01 T01860054  RH  042%=      5-min Rain = 0
KWE1 110051Z 16014KT 19/05 A2956 RMK A01 T01860054  RH  042%=      5-min Rain = 0
KWE1 110052Z 16015KT 19/05 A2956 RMK A01 T01870054  RH  042%=      5-min Rain = 0
KWE1 110053Z 17014KT 19/05 A2957 RMK A01 T01870054  RH  042%=      5-min Rain = 0
KWE1 110054Z 18013KT 19/05 A2958 RMK A01 T01860054  RH  042%=      5-min Rain = 0
KWE1 110055Z 22013KT 19/05 A296 RMK A01 T01860054  RH  042%=      5-min Rain = 0
KWE1 110056Z 27016G21KT 19/05 A2962 RMK A01 T01860054  RH  042%=      5-min Rain = 0
KWE1 110057Z 26013KT 19/06 A2962 RMK A01 T01870055  RH  042%=      5-min Rain = 0
KWE1 110058Z 26011KT 19/06 A2962 RMK A01 T01870056  RH  042%=      5-min Rain = 0
KWE1 110059Z 27012G18KT 19/06 A2962 RMK A01 T01870057  RH  042%=      5-min Rain = 0
KWE1 110100Z 26013KT 19/06 A2962 RMK A01 T01870059  RH  043%=      5-min Rain = 0
KWE1 110101Z 26011KT 19/06 A2961 RMK A01 T01890061  RH  043%=      5-min Rain = 0
KWE1 110102Z 25011KT 19/06 A2962 RMK A01 T01900061  RH  043%=      5-min Rain = 0
KWE1 110103Z 24011KT 19/06 A2962 RMK A01 T01900062  RH  043%=      5-min Rain = 0
KWE1 110104Z 24012KT 19/06 A2962 RMK A01 T01890064  RH  044%=      5-min Rain = 0
KWE1 110105Z 25011KT 19/07 A2962 RMK A01 T01890067  RH  045%=      5-min Rain = 0
KWE1 110106Z 25011KT 19/07 A2962 RMK A01 T01880070  RH  046%=      5-min Rain = 0
KWE1 110107Z 25008KT 19/07 A2962 RMK A01 T01870070  RH  047%=      5-min Rain = 0
KWE1 110108Z 22010KT 19/07 A2963 RMK A01 T01860070  RH  047%=      5-min Rain = 0
KWE1 110109Z 21011KT 19/07 A2963 RMK A01 T01860070  RH  047%=      5-min Rain = 0
KWE1 110110Z 21012KT 19/07 A2963 RMK A01 T01860072  RH  047%=      5-min Rain = 0
KWE1 110111Z 20011KT 18/07 A2963 RMK A01 T01840074  RH  049%=      5-min Rain = 0
KWE1 110112Z 20013KT 18/07 A2963 RMK A01 T01830073  RH  049%=      5-min Rain = 0
KWE1 110113Z 21013KT 18/08 A2964 RMK A01 T01820075  RH  050%=      5-min Rain = 0
KWE1 110114Z 21011KT 18/08 A2964 RMK A01 T01810082  RH  052%=      5-min Rain = 0
KWE1 110115Z 21014KT 18/09 A2964 RMK A01 T01780085  RH  055%=      5-min Rain = 0
KWE1 110116Z 21014KT 18/08 A2964 RMK A01 T01760083  RH  054%=      5-min Rain = 0
KWE1 110117Z 21014KT 18/09 A2965 RMK A01 T01750086  RH  056%=      5-min Rain = 0
KWE1 110118Z 21018KT 17/09 A2966 RMK A01 T01730091  RH  058%=      5-min Rain = 0
KWE1 110119Z 22019G24KT 17/09 A2967 RMK A01 T01690093  RH  061%=      5-min Rain = 0
KWE1 110120Z 24022G29KT 17/09 A2967 RMK A01 T01650094  RH  062%=      5-min Rain = 0
KWE1 110121Z 24027G34KT 16/09 A2968 RMK A01 T01630094  RH  064%=      5-min Rain = 0
KWE1 110122Z 24026G34KT 16/10 A2968 RMK A01 T01600097  RH  066%=      5-min Rain = 0.01
KWE1 110123Z 24019G24KT 16/10 A2968 RMK A01 T01560099  RH  069%=      5-min Rain = 0
KWE1 110124Z 23018G25KT 15/10 A2968 RMK A01 T01530102  RH  072%=      5-min Rain = 0.01
KWE1 110125Z 23019KT 15/10 A2968 RMK A01 T01500104  RH  074%=      5-min Rain = 0
KWE1 110126Z 23020KT 15/11 A2968 RMK A01 T01470105  RH  076%=      5-min Rain = 0
KWE1 110127Z 23018KT 15/11 A2968 RMK A01 T01460106  RH  077%=      5-min Rain = 0.01
KWE1 110128Z 22020G25KT 15/11 A2967 RMK A01 T01450106  RH  077%=      5-min Rain = 0
KWE1 110129Z 23020G26KT 15/11 A2967 RMK A01 T01450106  RH  078%=      5-min Rain = 0
KWE1 110130Z 24021KT 15/11 A2967 RMK A01 T01450107  RH  078%=      5-min Rain = 0
KWE1 110131Z 23020G26KT 15/11 A2967 RMK A01 T01450106  RH  078%=      5-min Rain = 0
KWE1 110132Z 23018KT 14/11 A2967 RMK A01 T01440106  RH  078%=      5-min Rain = 0
KWE1 110133Z 23020G26KT 14/11 A2967 RMK A01 T01440106  RH  078%=      5-min Rain = 0.01
KWE1 110134Z 23020KT 14/11 A2967 RMK A01 T01430105  RH  078%=      5-min Rain = 0
KWE1 110135Z 23018G23KT 14/11 A2967 RMK A01 T01430105  RH  078%=      5-min Rain = 0
KWE1 110136Z 23018KT 14/11 A2967 RMK A01 T01430105  RH  078%=      5-min Rain = 0
KWE1 110137Z 23019G26KT 14/10 A2967 RMK A01 T01420104  RH  078%=      5-min Rain = 0
KWE1 110138Z 23018KT 14/10 A2966 RMK A01 T01420104  RH  078%=      5-min Rain = 0
KWE1 110139Z 23020G26KT 14/10 A2966 RMK A01 T01420103  RH  078%=      5-min Rain = 0
KWE1 110140Z 23019KT 14/10 A2966 RMK A01 T01420102  RH  077%=      5-min Rain = 0
KWE1 110141Z 23018KT 14/10 A2966 RMK A01 T01420101  RH  076%=      5-min Rain = 0
KWE1 110142Z 24018KT 14/10 A2966 RMK A01 T01430101  RH  076%=      5-min Rain = 0
KWE1 110143Z 24021G26KT 14/10 A2966 RMK A01 T01430099  RH  075%=      5-min Rain = 0
KWE1 110144Z 23018KT 14/10 A2966 RMK A01 T01440099  RH  074%=      5-min Rain = 0
KWE1 110145Z 23020G26KT 15/10 A2967 RMK A01 T01450100  RH  075%=      5-min Rain = 0.01
KWE1 110146Z 24020KT 14/10 A2966 RMK A01 T01440100  RH  075%=      5-min Rain = 0
KWE1 110147Z 23019KT 14/10 A2967 RMK A01 T01430100  RH  075%=      5-min Rain = 0
KWE1 110148Z 24018G24KT 14/10 A2967 RMK A01 T01420101  RH  076%=      5-min Rain = 0
KWE1 110149Z 24016KT 14/10 A2967 RMK A01 T01410101  RH  077%=      5-min Rain = 0.01
KWE1 110150Z 24019KT 14/10 A2967 RMK A01 T01400101  RH  077%=      5-min Rain = 0
KWE1 110151Z 25016G21KT 14/10 A2966 RMK A01 T01400100  RH  077%=      5-min Rain = 0
KWE1 110152Z 25016KT 14/10 A2966 RMK A01 T01400101  RH  077%=      5-min Rain = 0.01
KWE1 110153Z 25014KT 14/10 A2966 RMK A01 T01400099  RH  076%=      5-min Rain = 0
KWE1 110154Z 25016KT 14/10 A2966 RMK A01 T01410098  RH  076%=      5-min Rain = 0
KWE1 110155Z 26015G22KT 14/10 A2966 RMK A01 T01410099  RH  076%=      5-min Rain = 0
KWE1 110156Z 26015G21KT 14/10 A2966 RMK A01 T01400100  RH  076%=      5-min Rain = 0
KWE1 110157Z 25018KT 14/10 A2966 RMK A01 T01400098  RH  076%=      5-min Rain = 0
KWE1 110158Z 26015KT 14/10 A2966 RMK A01 T01410097  RH  075%=      5-min Rain = 0
KWE1 110159Z 26015KT 14/10 A2966 RMK A01 T01420097  RH  074%=      5-min Rain = 0
KWE1 110200Z 26015KT 14/10 A2966 RMK A01 T01430097  RH  074%=      5-min Rain = 0
KWE1 110201Z 26015KT 14/10 A2966 RMK A01 T01430097  RH  074%=      5-min Rain = 0
KWE1 110202Z 26015KT 14/10 A2966 RMK A01 T01420097  RH  074%=      5-min Rain = 0
KWE1 110203Z 26014KT 14/10 A2967 RMK A01 T01420097  RH  074%=      5-min Rain = 0
KWE1 110204Z 25013KT 14/10 A2967 RMK A01 T01420096  RH  074%=      5-min Rain = 0
KWE1 110205Z 25013KT 14/10 A2967 RMK A01 T01420097  RH  074%=      5-min Rain = 0
KWE1 110206Z 25012KT 14/10 A2967 RMK A01 T01420097  RH  074%=      5-min Rain = 0
KWE1 110207Z 25014KT 14/10 A2967 RMK A01 T01420097  RH  074%=      5-min Rain = 0
KWE1 110208Z 25011KT 14/10 A2968 RMK A01 T01420096  RH  074%=      5-min Rain = 0
KWE1 110209Z 25013KT 14/10 A2968 RMK A01 T01420096  RH  074%=      5-min Rain = 0
KWE1 110210Z 25012KT 14/10 A2968 RMK A01 T01420095  RH  073%=      5-min Rain = 0
KWE1 110211Z 25011KT 14/10 A2968 RMK A01 T01430096  RH  073%=      5-min Rain = 0
KWE1 110212Z 25012KT 14/10 A2967 RMK A01 T01420096  RH  074%=      5-min Rain = 0
KWE1 110213Z 24013KT 14/10 A2968 RMK A01 T01420096  RH  074%=      5-min Rain = 0.01
KWE1 110214Z 23016KT 14/10 A2969 RMK A01 T01420096  RH  074%=      5-min Rain = 0
KWE1 110215Z 25013G18KT 14/10 A2968 RMK A01 T01410095  RH  074%=      5-min Rain = 0
KWE1 110216Z 27018G29KT 14/10 A2967 RMK A01 T01420095  RH  073%=      5-min Rain = 0
KWE1 110217Z 24020G28KT 14/09 A2966 RMK A01 T01430090  RH  070%=      5-min Rain = 0.01
KWE1 110218Z 19014KT 15/09 A2965 RMK A01 T01450092  RH  071%=      5-min Rain = 0
KWE1 110219Z 19013G18KT 14/09 A2961 RMK A01 T01430090  RH  070%=      5-min Rain = 0
KWE1 110220Z 16006KT 14/09 A2958 RMK A01 T01430086  RH  068%=      5-min Rain = 0
KWE1 110221Z 17006KT 15/09 A2957 RMK A01 T01450086  RH  068%=      5-min Rain = 0.01
KWE1 110222Z 20011KT 14/09 A2958 RMK A01 T01440090  RH  070%=      5-min Rain = 0
KWE1 110223Z 21011KT 14/09 A2959 RMK A01 T01430087  RH  069%=      5-min Rain = 0
KWE1 110224Z 21013KT 14/09 A296 RMK A01 T01440090  RH  070%=      5-min Rain = 0
KWE1 110225Z 22017G23KT 14/09 A2961 RMK A01 T01420088  RH  070%=      5-min Rain = 0
KWE1 110226Z 22015G22KT 14/09 A2961 RMK A01 T01440086  RH  068%=      5-min Rain = 0
KWE1 110227Z 22013KT 15/09 A2961 RMK A01 T01460087  RH  068%=      5-min Rain = 0
KWE1 110228Z 21013KT 15/09 A2961 RMK A01 T01450089  RH  069%=      5-min Rain = 0
KWE1 110229Z 21013KT 14/09 A2961 RMK A01 T01420089  RH  070%=      5-min Rain = 0
KWE1 110230Z 21013KT 14/09 A2961 RMK A01 T01410090  RH  071%=      5-min Rain = 0
KWE1 110231Z 20014KT 14/09 A2961 RMK A01 T01400089  RH  071%=      5-min Rain = 0
KWE1 110232Z 20013KT 14/09 A2961 RMK A01 T01400089  RH  071%=      5-min Rain = 0
KWE1 110233Z 20012KT 14/09 A2961 RMK A01 T01400090  RH  072%=      5-min Rain = 0
KWE1 110234Z 20012KT 14/09 A2961 RMK A01 T01390090  RH  072%=      5-min Rain = 0
KWE1 110235Z 20012KT 14/09 A2961 RMK A01 T01380090  RH  073%=      5-min Rain = 0
KWE1 110236Z 20012KT 14/09 A2961 RMK A01 T01380089  RH  073%=      5-min Rain = 0
KWE1 110237Z 20012KT 14/09 A296 RMK A01 T01380089  RH  073%=      5-min Rain = 0
KWE1 110238Z 20013KT 14/09 A296 RMK A01 T01370089  RH  072%=      5-min Rain = 0
KWE1 110239Z 20013KT 14/09 A296 RMK A01 T01380088  RH  072%=      5-min Rain = 0
KWE1 110240Z 19013KT 14/09 A296 RMK A01 T01380089  RH  072%=      5-min Rain = 0
KWE1 110241Z 19013KT 14/09 A296 RMK A01 T01370089  RH  073%=      5-min Rain = 0
KWE1 110242Z 19011KT 14/09 A296 RMK A01 T01370090  RH  073%=      5-min Rain = 0
KWE1 110243Z 19012KT 14/09 A2959 RMK A01 T01360091  RH  074%=      5-min Rain = 0
KWE1 110244Z 19012KT 13/09 A2959 RMK A01 T01340090  RH  075%=      5-min Rain = 0
KWE1 110245Z 19012KT 13/09 A2959 RMK A01 T01340090  RH  075%=      5-min Rain = 0
KWE1 110246Z 19012KT 13/09 A2959 RMK A01 T01340090  RH  075%=      5-min Rain = 0
KWE1 110247Z 19012KT 13/09 A2959 RMK A01 T01330090  RH  075%=      5-min Rain = 0
KWE1 110248Z 19013KT 13/09 A2959 RMK A01 T01320091  RH  076%=      5-min Rain = 0
KWE1 110249Z 19012KT 13/09 A2959 RMK A01 T01310091  RH  076%=      5-min Rain = 0
KWE1 110250Z 19013KT 13/09 A2959 RMK A01 T01300091  RH  077%=      5-min Rain = 0
KWE1 110251Z 19012KT 13/09 A2959 RMK A01 T01290090  RH  077%=      5-min Rain = 0
KWE1 110252Z 19011KT 13/09 A2959 RMK A01 T01290090  RH  077%=      5-min Rain = 0
KWE1 110253Z 19010KT 13/09 A2959 RMK A01 T01280090  RH  077%=      5-min Rain = 0
KWE1 110254Z 19010KT 13/09 A2959 RMK A01 T01280090  RH  078%=      5-min Rain = 0
KWE1 110255Z 20009KT 13/09 A2959 RMK A01 T01270089  RH  077%=      5-min Rain = 0
KWE1 110256Z 20009KT 13/09 A296 RMK A01 T01280088  RH  077%=      5-min Rain = 0
KWE1 110257Z 20009KT 13/09 A296 RMK A01 T01290087  RH  076%=      5-min Rain = 0
KWE1 110258Z 20010KT 13/09 A296 RMK A01 T01300088  RH  076%=      5-min Rain = 0
KWE1 110259Z 20009KT 13/09 A296 RMK A01 T01300087  RH  075%=      5-min Rain = 0
KWE1 110300Z 20009KT 13/09 A296 RMK A01 T01300087  RH  075%=      5-min Rain = 0
KWE1 110301Z 20010KT 13/09 A296 RMK A01 T01300086  RH  075%=      5-min Rain = 0
KWE1 110302Z 20010KT 13/09 A296 RMK A01 T01300086  RH  074%=      5-min Rain = 0
KWE1 110303Z 20009KT 13/09 A296 RMK A01 T01310085  RH  074%=      5-min Rain = 0
KWE1 110304Z 20009KT 13/09 A296 RMK A01 T01310086  RH  074%=      5-min Rain = 0
KWE1 110305Z 20010KT 13/09 A296 RMK A01 T01310086  RH  074%=      5-min Rain = 0
KWE1 110306Z 20011KT 13/09 A296 RMK A01 T01310085  RH  074%=      5-min Rain = 0
KWE1 110307Z 20010KT 13/09 A296 RMK A01 T01310086  RH  074%=      5-min Rain = 0
KWE1 110308Z 20010KT 13/09 A296 RMK A01 T01310085  RH  074%=      5-min Rain = 0
KWE1 110309Z 20012KT 13/09 A296 RMK A01 T01310085  RH  074%=      5-min Rain = 0
KWE1 110310Z 21011KT 13/09 A2961 RMK A01 T01310086  RH  074%=      5-min Rain = 0
KWE1 110311Z 21012KT 13/09 A2961 RMK A01 T01300086  RH  075%=      5-min Rain = 0
KWE1 110312Z 21009KT 13/09 A2961 RMK A01 T01290087  RH  076%=      5-min Rain = 0
KWE1 110313Z 21010KT 13/09 A2961 RMK A01 T01270086  RH  076%=      5-min Rain = 0
KWE1 110314Z 19011KT 13/09 A2961 RMK A01 T01260086  RH  077%=      5-min Rain = 0
KWE1 110315Z 20011G16KT 13/09 A2961 RMK A01 T01260086  RH  077%=      5-min Rain = 0
KWE1 110316Z 20011KT 13/09 A2961 RMK A01 T01250086  RH  077%=      5-min Rain = 0
KWE1 110317Z 20009KT 13/09 A2961 RMK A01 T01260086  RH  077%=      5-min Rain = 0
KWE1 110318Z 20011KT 13/09 A2961 RMK A01 T01250086  RH  077%=      5-min Rain = 0
KWE1 110319Z 20010KT 13/09 A2961 RMK A01 T01250087  RH  077%=      5-min Rain = 0
KWE1 110320Z 19010KT 13/09 A2961 RMK A01 T01250087  RH  078%=      5-min Rain = 0
KWE1 110321Z 19011KT 12/09 A2961 RMK A01 T01230086  RH  078%=      5-min Rain = 0
KWE1 110322Z 19012KT 12/09 A2961 RMK A01 T01210086  RH  079%=      5-min Rain = 0
KWE1 110323Z 19013KT 12/09 A2961 RMK A01 T01200086  RH  080%=      5-min Rain = 0
KWE1 110324Z 20012KT 12/09 A2961 RMK A01 T01200086  RH  080%=      5-min Rain = 0
KWE1 110325Z 20012KT 12/09 A2961 RMK A01 T01190086  RH  080%=      5-min Rain = 0
KWE1 110326Z 20012KT 12/09 A2961 RMK A01 T01200085  RH  079%=      5-min Rain = 0
KWE1 110327Z 20012KT 12/08 A2962 RMK A01 T01220084  RH  078%=      5-min Rain = 0
KWE1 110328Z 20012KT 12/08 A2962 RMK A01 T01240083  RH  076%=      5-min Rain = 0
KWE1 110329Z 20012KT 12/08 A2962 RMK A01 T01240084  RH  076%=      5-min Rain = 0
KWE1 110330Z 19012KT 12/08 A2962 RMK A01 T01240084  RH  076%=      5-min Rain = 0
KWE1 110331Z 19011KT 12/08 A2962 RMK A01 T01240084  RH  077%=      5-min Rain = 0
KWE1 110332Z 19012KT 12/08 A2962 RMK A01 T01220084  RH  077%=      5-min Rain = 0
KWE1 110333Z 19011KT 12/08 A2962 RMK A01 T01210084  RH  078%=      5-min Rain = 0
KWE1 110334Z 19011KT 12/08 A2962 RMK A01 T01200084  RH  078%=      5-min Rain = 0
KWE1 110335Z 19012KT 12/08 A2962 RMK A01 T01200084  RH  079%=      5-min Rain = 0
KWE1 110336Z 19011KT 12/09 A2962 RMK A01 T01200085  RH  079%=      5-min Rain = 0
KWE1 110337Z 19011KT 12/09 A2962 RMK A01 T01190085  RH  080%=      5-min Rain = 0
KWE1 110338Z 19012KT 12/09 A2962 RMK A01 T01180085  RH  080%=      5-min Rain = 0
KWE1 110339Z 18013KT 12/09 A2962 RMK A01 T01170086  RH  081%=      5-min Rain = 0
KWE1 110340Z 19013KT 12/09 A2962 RMK A01 T01160086  RH  082%=      5-min Rain = 0
KWE1 110341Z 19012KT 12/09 A2962 RMK A01 T01160086  RH  082%=      5-min Rain = 0
KWE1 110342Z 19012KT 12/09 A2962 RMK A01 T01160085  RH  081%=      5-min Rain = 0
KWE1 110343Z 19012KT 12/09 A2962 RMK A01 T01160085  RH  081%=      5-min Rain = 0
KWE1 110344Z 19012KT 12/09 A2962 RMK A01 T01160085  RH  081%=      5-min Rain = 0
KWE1 110345Z 19012KT 12/09 A2962 RMK A01 T01170085  RH  081%=      5-min Rain = 0
KWE1 110346Z 20012KT 12/09 A2962 RMK A01 T01170085  RH  081%=      5-min Rain = 0
KWE1 110347Z 20012KT 12/09 A2962 RMK A01 T01180085  RH  080%=      5-min Rain = 0
KWE1 110348Z 19013KT 12/09 A2962 RMK A01 T01180085  RH  080%=      5-min Rain = 0
KWE1 110349Z 19014KT 12/09 A2962 RMK A01 T01190086  RH  080%=      5-min Rain = 0
KWE1 110350Z 19015KT 12/09 A2963 RMK A01 T01190086  RH  080%=      5-min Rain = 0
KWE1 110351Z 19014KT 12/09 A2963 RMK A01 T01200086  RH  080%=      5-min Rain = 0
KWE1 110352Z 19013KT 12/09 A2962 RMK A01 T01200085  RH  079%=      5-min Rain = 0
KWE1 110353Z 19014KT 12/09 A2962 RMK A01 T01200086  RH  079%=      5-min Rain = 0
KWE1 110354Z 19013KT 12/09 A2963 RMK A01 T01190085  RH  080%=      5-min Rain = 0
KWE1 110355Z 19013KT 12/09 A2963 RMK A01 T01180085  RH  080%=      5-min Rain = 0
KWE1 110356Z 19013KT 12/08 A2963 RMK A01 T01180084  RH  080%=      5-min Rain = 0
KWE1 110357Z 19014KT 12/08 A2963 RMK A01 T01180084  RH  080%=      5-min Rain = 0
KWE1 110358Z 19013KT 12/08 A2963 RMK A01 T01190083  RH  079%=      5-min Rain = 0
KWE1 110359Z 19013KT 12/08 A2963 RMK A01 T01190083  RH  078%=      5-min Rain = 0
KWE1 110400Z 19013KT 12/08 A2963 RMK A01 T01190083  RH  078%=      5-min Rain = 0
KWE1 110401Z 19014KT 12/08 A2963 RMK A01 T01180083  RH  079%=      5-min Rain = 0
KWE1 110402Z 19013KT 12/08 A2963 RMK A01 T01170082  RH  079%=      5-min Rain = 0
KWE1 110403Z 19014KT 12/08 A2963 RMK A01 T01160082  RH  080%=      5-min Rain = 0
KWE1 110404Z 19014KT 12/08 A2963 RMK A01 T01160082  RH  080%=      5-min Rain = 0
KWE1 110405Z 19013KT 12/08 A2963 RMK A01 T01160082  RH  079%=      5-min Rain = 0
KWE1 110406Z 20012KT 12/08 A2963 RMK A01 T01160081  RH  079%=      5-min Rain = 0
KWE1 110407Z 20013KT 12/08 A2963 RMK A01 T01160080  RH  079%=      5-min Rain = 0
KWE1 110408Z 20014KT 12/08 A2963 RMK A01 T01170080  RH  078%=      5-min Rain = 0
KWE1 110409Z 20012KT 12/08 A2963 RMK A01 T01180079  RH  077%=      5-min Rain = 0
KWE1 110410Z 20013KT 12/08 A2963 RMK A01 T01180079  RH  077%=      5-min Rain = 0
KWE1 110411Z 19015KT 12/08 A2963 RMK A01 T01190079  RH  077%=      5-min Rain = 0
KWE1 110412Z 20012KT 12/08 A2963 RMK A01 T01180079  RH  076%=      5-min Rain = 0
KWE1 110413Z 20014KT 12/08 A2963 RMK A01 T01180078  RH  077%=      5-min Rain = 0
KWE1 110414Z 19015KT 12/08 A2963 RMK A01 T01180078  RH  076%=      5-min Rain = 0
KWE1 110415Z 20014KT 12/08 A2963 RMK A01 T01180077  RH  076%=      5-min Rain = 0
KWE1 110416Z 20013KT 12/08 A2963 RMK A01 T01190076  RH  075%=      5-min Rain = 0
KWE1 110417Z 19012KT 12/08 A2963 RMK A01 T01190077  RH  075%=      5-min Rain = 0
KWE1 110418Z 20014KT 12/08 A2963 RMK A01 T01180076  RH  075%=      5-min Rain = 0
KWE1 110419Z 20014KT 12/08 A2963 RMK A01 T01180076  RH  075%=      5-min Rain = 0
KWE1 110420Z 20014KT 12/08 A2964 RMK A01 T01180075  RH  075%=      5-min Rain = 0
KWE1 110421Z 20014KT 12/07 A2964 RMK A01 T01180074  RH  075%=      5-min Rain = 0
KWE1 110422Z 20015G20KT 12/07 A2964 RMK A01 T01180074  RH  074%=      5-min Rain = 0
KWE1 110423Z 20014KT 12/07 A2964 RMK A01 T01180073  RH  074%=      5-min Rain = 0
KWE1 110424Z 20014KT 12/07 A2964 RMK A01 T01180073  RH  074%=      5-min Rain = 0
KWE1 110425Z 20016KT 12/07 A2964 RMK A01 T01180073  RH  074%=      5-min Rain = 0
KWE1 110426Z 20014KT 12/07 A2964 RMK A01 T01170073  RH  074%=      5-min Rain = 0
KWE1 110427Z 20014KT 12/07 A2964 RMK A01 T01180072  RH  074%=      5-min Rain = 0
KWE1 110428Z 20014KT 12/07 A2964 RMK A01 T01170072  RH  074%=      5-min Rain = 0
KWE1 110429Z 20015KT 12/07 A2964 RMK A01 T01180072  RH  073%=      5-min Rain = 0
KWE1 110430Z 20015KT 12/07 A2964 RMK A01 T01170071  RH  073%=      5-min Rain = 0
KWE1 110431Z 20015KT 12/07 A2964 RMK A01 T01170070  RH  073%=      5-min Rain = 0
KWE1 110432Z 20014KT 12/07 A2963 RMK A01 T01170070  RH  073%=      5-min Rain = 0
KWE1 110433Z 20013KT 12/07 A2963 RMK A01 T01170070  RH  073%=      5-min Rain = 0
KWE1 110434Z 20014KT 12/07 A2963 RMK A01 T01160070  RH  073%=      5-min Rain = 0
KWE1 110435Z 20015KT 12/07 A2963 RMK A01 T01150069  RH  074%=      5-min Rain = 0
KWE1 110436Z 20014KT 12/07 A2963 RMK A01 T01150069  RH  073%=      5-min Rain = 0
KWE1 110437Z 20013KT 12/07 A2963 RMK A01 T01150068  RH  073%=      5-min Rain = 0
KWE1 110438Z 20014KT 11/07 A2963 RMK A01 T01140068  RH  073%=      5-min Rain = 0
KWE1 110439Z 20013KT 11/07 A2963 RMK A01 T01140068  RH  073%=      5-min Rain = 0
KWE1 110440Z 21012KT 11/07 A2963 RMK A01 T01140067  RH  073%=      5-min Rain = 0
KWE1 110441Z 21012KT 11/07 A2963 RMK A01 T01130068  RH  074%=      5-min Rain = 0
KWE1 110442Z 20011KT 11/07 A2963 RMK A01 T01120067  RH  074%=      5-min Rain = 0
KWE1 110443Z 20013KT 11/07 A2963 RMK A01 T01110067  RH  074%=      5-min Rain = 0
KWE1 110444Z 21014KT 11/07 A2963 RMK A01 T01110066  RH  074%=      5-min Rain = 0
KWE1 110445Z 20012KT 11/07 A2963 RMK A01 T01120066  RH  073%=      5-min Rain = 0
KWE1 110446Z 20012KT 11/07 A2963 RMK A01 T01120066  RH  073%=      5-min Rain = 0
KWE1 110447Z 20012KT 11/07 A2963 RMK A01 T01110066  RH  074%=      5-min Rain = 0
KWE1 110448Z 20012KT 11/07 A2963 RMK A01 T01110065  RH  073%=      5-min Rain = 0
KWE1 110449Z 20011KT 11/07 A2963 RMK A01 T01110065  RH  073%=      5-min Rain = 0
KWE1 110450Z 20012KT 11/07 A2963 RMK A01 T01110065  RH  073%=      5-min Rain = 0
KWE1 110451Z 20012KT 11/07 A2963 RMK A01 T01100065  RH  074%=      5-min Rain = 0
KWE1 110452Z 20011KT 11/07 A2963 RMK A01 T01100065  RH  074%=      5-min Rain = 0
KWE1 110453Z 20012KT 11/06 A2963 RMK A01 T01090064  RH  074%=      5-min Rain = 0
KWE1 110454Z 20014G19KT 11/06 A2963 RMK A01 T01090064  RH  074%=      5-min Rain = 0
KWE1 110455Z 20015KT 11/06 A2963 RMK A01 T01090063  RH  073%=      5-min Rain = 0
KWE1 110456Z 20014KT 11/06 A2963 RMK A01 T01100063  RH  073%=      5-min Rain = 0
KWE1 110457Z 20012KT 11/06 A2963 RMK A01 T01110063  RH  072%=      5-min Rain = 0
KWE1 110458Z 20013KT 11/06 A2963 RMK A01 T01100063  RH  073%=      5-min Rain = 0
KWE1 110459Z 20014KT 11/06 A2963 RMK A01 T01090063  RH  073%=      5-min Rain = 0
KWE1 110500Z 20013KT 11/06 A2963 RMK A01 T01090062  RH  073%=      5-min Rain = 0
KWE1 110501Z 20014KT 11/06 A2963 RMK A01 T01100062  RH  072%=      5-min Rain = 0
KWE1 110502Z 20013KT 11/06 A2963 RMK A01 T01100061  RH  072%=      5-min Rain = 0
KWE1 110503Z 21014KT 11/06 A2963 RMK A01 T01100061  RH  072%=      5-min Rain = 0
KWE1 110504Z 20013KT 11/06 A2963 RMK A01 T01090061  RH  072%=      5-min Rain = 0
KWE1 110505Z 20012KT 11/06 A2963 RMK A01 T01090061  RH  072%=      5-min Rain = 0
KWE1 110506Z 20014KT 11/06 A2963 RMK A01 T01080060  RH  072%=      5-min Rain = 0
KWE1 110507Z 20014KT 11/06 A2963 RMK A01 T01090060  RH  072%=      5-min Rain = 0
KWE1 110508Z 20015KT 11/06 A2963 RMK A01 T01100059  RH  071%=      5-min Rain = 0
KWE1 110509Z 20015KT 11/06 A2963 RMK A01 T01100059  RH  070%=      5-min Rain = 0
KWE1 110510Z 20015KT 11/06 A2963 RMK A01 T01110059  RH  070%=      5-min Rain = 0
KWE1 110511Z 20014KT 11/06 A2963 RMK A01 T01110059  RH  070%=      5-min Rain = 0
KWE1 110512Z 20013KT 11/06 A2963 RMK A01 T01120059  RH  070%=      5-min Rain = 0
KWE1 110513Z 20011KT 11/06 A2963 RMK A01 T01110058  RH  070%=      5-min Rain = 0
KWE1 110514Z 20014KT 11/06 A2963 RMK A01 T01100058  RH  070%=      5-min Rain = 0
KWE1 110515Z 20014KT 11/06 A2963 RMK A01 T01100057  RH  070%=      5-min Rain = 0
KWE1 110516Z 20013KT 11/06 A2962 RMK A01 T01110057  RH  069%=      5-min Rain = 0
KWE1 110517Z 20015KT 11/06 A2962 RMK A01 T01110056  RH  069%=      5-min Rain = 0
KWE1 110518Z 20014KT 11/06 A2962 RMK A01 T01110056  RH  069%=      5-min Rain = 0
KWE1 110519Z 20014G19KT 11/06 A2962 RMK A01 T01110056  RH  069%=      5-min Rain = 0
KWE1 110520Z 21014KT 11/06 A2962 RMK A01 T01110055  RH  068%=      5-min Rain = 0
KWE1 110521Z 21015KT 11/06 A2962 RMK A01 T01110055  RH  068%=      5-min Rain = 0
KWE1 110522Z 20014KT 11/06 A2962 RMK A01 T01110055  RH  068%=      5-min Rain = 0
KWE1 110523Z 21015KT 11/05 A2962 RMK A01 T01110054  RH  068%=      5-min Rain = 0
KWE1 110524Z 20014KT 11/06 A2962 RMK A01 T01110055  RH  068%=      5-min Rain = 0
KWE1 110525Z 21014KT 11/06 A2962 RMK A01 T01110055  RH  068%=      5-min Rain = 0
KWE1 110526Z 21014KT 11/06 A2962 RMK A01 T01110055  RH  069%=      5-min Rain = 0
KWE1 110527Z 21014KT 11/06 A2962 RMK A01 T01100055  RH  069%=      5-min Rain = 0
KWE1 110528Z 21013KT 11/06 A2962 RMK A01 T01090055  RH  069%=      5-min Rain = 0
KWE1 110529Z 21012KT 11/06 A2962 RMK A01 T01080055  RH  070%=      5-min Rain = 0
KWE1 110530Z 21013KT 11/06 A2962 RMK A01 T01070055  RH  070%=      5-min Rain = 0
KWE1 110531Z 21012KT 11/06 A2962 RMK A01 T01060055  RH  071%=      5-min Rain = 0
KWE1 110532Z 22012KT 11/06 A2963 RMK A01 T01060055  RH  071%=      5-min Rain = 0
KWE1 110533Z 22012KT 11/06 A2963 RMK A01 T01050055  RH  071%=      5-min Rain = 0
KWE1 110534Z 22012KT 10/06 A2963 RMK A01 T01040055  RH  071%=      5-min Rain = 0
KWE1 110535Z 21011KT 10/05 A2963 RMK A01 T01040054  RH  071%=      5-min Rain = 0
KWE1 110536Z 21012KT 10/06 A2963 RMK A01 T01030055  RH  072%=      5-min Rain = 0
KWE1 110537Z 21012KT 10/05 A2962 RMK A01 T01030054  RH  072%=      5-min Rain = 0
KWE1 110538Z 20015KT 10/05 A2962 RMK A01 T01030054  RH  072%=      5-min Rain = 0
KWE1 110539Z 20015KT 10/05 A2962 RMK A01 T01040053  RH  070%=      5-min Rain = 0
KWE1 110540Z 20016KT 11/05 A2962 RMK A01 T01060053  RH  070%=      5-min Rain = 0
KWE1 110541Z 20014KT 11/05 A2962 RMK A01 T01070053  RH  069%=      5-min Rain = 0
KWE1 110542Z 20014KT 11/05 A2962 RMK A01 T01070053  RH  069%=      5-min Rain = 0
KWE1 110543Z 20014KT 11/05 A2962 RMK A01 T01060053  RH  069%=      5-min Rain = 0
KWE1 110544Z 20014KT 11/05 A2962 RMK A01 T01060052  RH  070%=      5-min Rain = 0
KWE1 110545Z 20014KT 11/05 A2962 RMK A01 T01050052  RH  070%=      5-min Rain = 0
KWE1 110546Z 20013KT 11/05 A2962 RMK A01 T01050052  RH  070%=      5-min Rain = 0
KWE1 110547Z 20013KT 11/05 A2962 RMK A01 T01050052  RH  070%=      5-min Rain = 0
KWE1 110548Z 20014KT 10/05 A2962 RMK A01 T01040052  RH  070%=      5-min Rain = 0
KWE1 110549Z 20015KT 10/05 A2962 RMK A01 T01040051  RH  070%=      5-min Rain = 0
KWE1 110550Z 20014KT 11/05 A2962 RMK A01 T01050051  RH  069%=      5-min Rain = 0
KWE1 110551Z 20013KT 11/05 A2962 RMK A01 T01060051  RH  069%=      5-min Rain = 0
KWE1 110552Z 20016KT 11/05 A2962 RMK A01 T01050051  RH  069%=      5-min Rain = 0
KWE1 110553Z 20014KT 11/05 A2962 RMK A01 T01060050  RH  068%=      5-min Rain = 0
KWE1 110554Z 20014KT 11/05 A2962 RMK A01 T01070050  RH  068%=      5-min Rain = 0
KWE1 110555Z 20015KT 11/05 A2962 RMK A01 T01080050  RH  068%=      5-min Rain = 0
KWE1 110556Z 20016KT 11/05 A2962 RMK A01 T01080050  RH  067%=      5-min Rain = 0
KWE1 110557Z 20015KT 11/05 A2962 RMK A01 T01090049  RH  067%=      5-min Rain = 0
KWE1 110558Z 21015KT 11/05 A2962 RMK A01 T01090050  RH  067%=      5-min Rain = 0
KWE1 110559Z 20014KT 11/05 A2962 RMK A01 T01080050  RH  067%=      5-min Rain = 0

Page generated in 0.1842 seconds.